Wetterdaten: Sonntag, 03.10.2021
Datum Zeit Temp. Aussen Temp. o. S. Temp +5cm Feuchte Auss Luftdruck Regen Sonnenschein Regendauer Solar Windben Empfang
03.10.2021 00:00 16,9 C 16,1 C 13,4 C 87 % 998,5 hPa 0,0 l/m 0 min 0 min 0 W/m 25,7 km/h (4 Bft) 100,00 %
03.10.2021 00:02 16,9 C 16,1 C 13,4 C 87 % 998,6 hPa 0,0 l/m 0 min 0 min 0 W/m 22,5 km/h (4 Bft) 100,00 %
03.10.2021 00:04 17,0 C 16,7 C 13,4 C 87 % 998,6 hPa 0,0 l/m 0 min 0 min 0 W/m 19,3 km/h (3 Bft) 97,87 %
03.10.2021 00:07 17,1 C 16,7 C 13,9 C 87 % 998,5 hPa 0,0 l/m 0 min 3 min 0 W/m 25,7 km/h (4 Bft) 100,00 %
03.10.2021 00:08 17,1 C 16,7 C 13,9 C 86 % 998,5 hPa 0,0 l/m 0 min 1 min 0 W/m 9,7 km/h (2 Bft) 100,00 %
03.10.2021 00:10 17,3 C 16,7 C 13,9 C 86 % 998,6 hPa 0,0 l/m 0 min 0 min 0 W/m 25,7 km/h (4 Bft) 100,00 %
03.10.2021 00:12 17,4 C 16,7 C 13,9 C 86 % 998,4 hPa 0,0 l/m 0 min 2 min 0 W/m 19,3 km/h (3 Bft) 100,00 %
03.10.2021 00:14 17,4 C 16,7 C 13,9 C 86 % 998,4 hPa 0,0 l/m 0 min 2 min 0 W/m 29,0 km/h (5 Bft) 95,65 %
03.10.2021 00:16 17,5 C 17,2 C 13,9 C 85 % 998,5 hPa 0,0 l/m 0 min 2 min 0 W/m 45,1 km/h (6 Bft) 98,11 %
03.10.2021 00:18 17,6 C 17,2 C 13,9 C 85 % 998,5 hPa 0,0 l/m 0 min 2 min 0 W/m 54,7 km/h (7 Bft) 95,74 %
03.10.2021 00:20 17,8 C 17,2 C 13,9 C 84 % 998,5 hPa 0,0 l/m 0 min 2 min 0 W/m 32,2 km/h (5 Bft) 95,74 %
03.10.2021 00:22 17,8 C 17,2 C 13,9 C 84 % 998,4 hPa 0,0 l/m 0 min 2 min 0 W/m 25,7 km/h (4 Bft) 97,87 %
03.10.2021 00:24 17,9 C 17,2 C 13,9 C 84 % 998,3 hPa 0,0 l/m 0 min 2 min 0 W/m 45,1 km/h (6 Bft) 97,83 %
03.10.2021 00:26 17,9 C 17,2 C 13,9 C 84 % 998,4 hPa 0,0 l/m 0 min 2 min 0 W/m 45,1 km/h (6 Bft) 97,87 %
03.10.2021 00:28 18,0 C 17,2 C 13,9 C 83 % 998,4 hPa 0,0 l/m 0 min 0 min 0 W/m 45,1 km/h (6 Bft) 97,87 %
03.10.2021 00:30 18,0 C 17,2 C 13,9 C 83 % 998,5 hPa 0,0 l/m 0 min 0 min 0 W/m 45,1 km/h (6 Bft) 97,87 %
03.10.2021 00:32 18,1 C 17,2 C 13,9 C 82 % 998,4 hPa 0,0 l/m 0 min 0 min 0 W/m 22,5 km/h (4 Bft) 97,22 %
03.10.2021 00:34 18,1 C 17,2 C 13,9 C 82 % 998,3 hPa 0,0 l/m 0 min 0 min 0 W/m 29,0 km/h (5 Bft) 95,74 %
03.10.2021 00:36 18,1 C 17,2 C 13,9 C 82 % 998,3 hPa 0,0 l/m 0 min 0 min 0 W/m 32,2 km/h (5 Bft) 97,87 %
03.10.2021 00:38 18,2 C 17,2 C 13,9 C 82 % 998,4 hPa 0,0 l/m 0 min 0 min 0 W/m 35,4 km/h (5 Bft) 96,55 %
03.10.2021 00:40 18,3 C 17,2 C 13,9 C 81 % 998,3 hPa 0,0 l/m 0 min 0 min 0 W/m 41,8 km/h (6 Bft) 97,14 %
03.10.2021 00:42 18,3 C 17,8 C 14,5 C 81 % 998,3 hPa 0,0 l/m 0 min 0 min 0 W/m 35,4 km/h (5 Bft) 95,74 %
03.10.2021 00:44 18,3 C 17,2 C 13,9 C 81 % 998,2 hPa 0,0 l/m 0 min 0 min 0 W/m 35,4 km/h (5 Bft) 95,74 %
03.10.2021 00:46 18,3 C 17,2 C 13,9 C 81 % 998,3 hPa 0,0 l/m 0 min 0 min 0 W/m 29,0 km/h (5 Bft) 95,74 %
03.10.2021 00:48 18,3 C 17,2 C 14,5 C 81 % 998,3 hPa 0,0 l/m 0 min 0 min 0 W/m 29,0 km/h (5 Bft) 95,74 %
03.10.2021 00:50 18,3 C 17,2 C 13,9 C 81 % 998,3 hPa 0,0 l/m 0 min 0 min 0 W/m 41,8 km/h (6 Bft) 95,65 %
03.10.2021 00:52 18,3 C 17,2 C 14,5 C 81 % 998,3 hPa 0,0 l/m 0 min 0 min 0 W/m 29,0 km/h (5 Bft) 93,62 %
03.10.2021 00:54 18,3 C 17,2 C 13,9 C 81 % 998,4 hPa 0,0 l/m 0 min 2 min 0 W/m 25,7 km/h (4 Bft) 93,62 %
03.10.2021 00:56 18,4 C 17,2 C 13,9 C 81 % 998,4 hPa 0,0 l/m 0 min 2 min 0 W/m 29,0 km/h (5 Bft) 95,74 %
03.10.2021 00:58 18,4 C 17,2 C 13,9 C 82 % 998,5 hPa 0,0 l/m 0 min 2 min 0 W/m 38,6 km/h (5 Bft) 97,87 %
03.10.2021 01:00 18,4 C 16,7 C 13,9 C 82 % 998,3 hPa 0,0 l/m 0 min 2 min 0 W/m 38,6 km/h (5 Bft) 97,87 %
03.10.2021 01:02 18,3 C 16,7 C 13,9 C 82 % 998,4 hPa 0,0 l/m 0 min 2 min 0 W/m 38,6 km/h (5 Bft) 97,83 %
03.10.2021 01:04 18,3 C 16,7 C 13,9 C 83 % 998,4 hPa 0,0 l/m 0 min 2 min 0 W/m 25,7 km/h (4 Bft) 97,87 %
03.10.2021 01:06 18,2 C 16,7 C 13,9 C 83 % 998,3 hPa 0,0 l/m 0 min 2 min 0 W/m 29,0 km/h (5 Bft) 96,61 %
03.10.2021 01:08 18,1 C 16,7 C 13,9 C 83 % 998,3 hPa 0,0 l/m 0 min 2 min 0 W/m 25,7 km/h (4 Bft) 100,00 %
03.10.2021 01:10 18,1 C 17,2 C 13,9 C 83 % 998,4 hPa 0,0 l/m 0 min 2 min 0 W/m 48,3 km/h (6 Bft) 97,87 %
03.10.2021 01:12 18,1 C 17,2 C 13,9 C 83 % 998,3 hPa 0,0 l/m 0 min 2 min 0 W/m 29,0 km/h (5 Bft) 97,87 %
03.10.2021 01:14 18,1 C 17,2 C 13,9 C 83 % 998,2 hPa 0,0 l/m 0 min 0 min 0 W/m 32,2 km/h (5 Bft) 100,00 %
03.10.2021 01:16 18,1 C 17,2 C 13,9 C 83 % 998,3 hPa 0,0 l/m 0 min 0 min 0 W/m 22,5 km/h (4 Bft) 100,00 %
03.10.2021 01:18 18,1 C 17,2 C 13,9 C 83 % 998,5 hPa 0,0 l/m 0 min 0 min 0 W/m 29,0 km/h (5 Bft) 100,00 %
03.10.2021 01:20 18,1 C 17,2 C 13,9 C 83 % 998,3 hPa 0,0 l/m 0 min 0 min 0 W/m 35,4 km/h (5 Bft) 100,00 %
03.10.2021 01:22 18,1 C 17,2 C 13,9 C 83 % 998,2 hPa 0,0 l/m 0 min 2 min 0 W/m 54,7 km/h (7 Bft) 93,62 %
03.10.2021 01:24 18,1 C 17,2 C 13,9 C 83 % 998,3 hPa 0,2 l/m 0 min 2 min 0 W/m 48,3 km/h (6 Bft) 100,00 %
03.10.2021 01:26 18,1 C 17,2 C 13,9 C 83 % 998,2 hPa 0,0 l/m 0 min 2 min 0 W/m 29,0 km/h (5 Bft) 100,00 %
03.10.2021 01:28 18,1 C 17,2 C 13,9 C 84 % 998,3 hPa 0,0 l/m 0 min 2 min 0 W/m 38,6 km/h (5 Bft) 100,00 %
03.10.2021 01:30 18,1 C 17,2 C 13,9 C 84 % 998,3 hPa 0,0 l/m 0 min 2 min 0 W/m 35,4 km/h (5 Bft) 100,00 %
03.10.2021 01:32 18,1 C 17,2 C 13,9 C 84 % 998,2 hPa 0,0 l/m 0 min 2 min 0 W/m 41,8 km/h (6 Bft) 100,00 %
03.10.2021 01:34 18,1 C 16,7 C 13,9 C 84 % 998,2 hPa 0,0 l/m 0 min 2 min 0 W/m 22,5 km/h (4 Bft) 100,00 %
03.10.2021 01:36 18,0 C 16,7 C 13,9 C 85 % 998,2 hPa 0,0 l/m 0 min 2 min 0 W/m 32,2 km/h (5 Bft) 98,28 %
03.10.2021 01:38 18,0 C 16,7 C 13,9 C 85 % 998,2 hPa 0,0 l/m 0 min 2 min 0 W/m 48,3 km/h (6 Bft) 100,00 %
03.10.2021 01:40 17,9 C 16,7 C 13,9 C 85 % 998,3 hPa 0,0 l/m 0 min 2 min 0 W/m 35,4 km/h (5 Bft) 100,00 %
03.10.2021 01:42 17,8 C 16,7 C 13,9 C 86 % 998,2 hPa 0,0 l/m 0 min 2 min 0 W/m 41,8 km/h (6 Bft) 100,00 %
03.10.2021 01:44 17,8 C 16,7 C 13,9 C 86 % 998,2 hPa 0,0 l/m 0 min 2 min 0 W/m 22,5 km/h (4 Bft) 97,87 %
03.10.2021 01:46 17,8 C 16,7 C 13,9 C 86 % 998,1 hPa 0,0 l/m 0 min 2 min 0 W/m 29,0 km/h (5 Bft) 100,00 %
03.10.2021 01:48 17,7 C 16,7 C 13,9 C 86 % 998,2 hPa 0,0 l/m 0 min 0 min 0 W/m 25,7 km/h (4 Bft) 98,08 %
03.10.2021 01:50 17,6 C 16,7 C 13,9 C 86 % 998,1 hPa 0,0 l/m 0 min 2 min 0 W/m 38,6 km/h (5 Bft) 97,87 %
03.10.2021 01:52 17,6 C 16,7 C 13,9 C 86 % 998,1 hPa 0,0 l/m 0 min 2 min 0 W/m 16,1 km/h (3 Bft) 97,87 %
03.10.2021 01:54 17,6 C 16,7 C 13,9 C 87 % 998,2 hPa 0,0 l/m 0 min 2 min 0 W/m 32,2 km/h (5 Bft) 97,87 %
03.10.2021 01:56 17,6 C 16,7 C 13,9 C 87 % 998,2 hPa 0,0 l/m 0 min 2 min 0 W/m 19,3 km/h (3 Bft) 97,87 %
03.10.2021 01:58 17,6 C 16,7 C 13,9 C 87 % 998,1 hPa 0,0 l/m 0 min 2 min 0 W/m 19,3 km/h (3 Bft) 97,87 %
03.10.2021 02:00 17,6 C 16,7 C 13,9 C 86 % 998,1 hPa 0,0 l/m 0 min 2 min 0 W/m 19,3 km/h (3 Bft) 97,83 %
03.10.2021 02:02 17,6 C 16,7 C 13,9 C 87 % 998,0 hPa 0,0 l/m 0 min 0 min 0 W/m 45,1 km/h (6 Bft) 95,83 %
03.10.2021 02:04 17,8 C 17,2 C 13,9 C 86 % 998,1 hPa 0,0 l/m 0 min 2 min 0 W/m 35,4 km/h (5 Bft) 97,87 %
03.10.2021 02:06 17,8 C 17,2 C 13,9 C 86 % 998,1 hPa 0,0 l/m 0 min 0 min 0 W/m 38,6 km/h (5 Bft) 97,87 %
03.10.2021 02:08 17,9 C 17,2 C 13,9 C 86 % 998,1 hPa 0,0 l/m 0 min 2 min 0 W/m 38,6 km/h (5 Bft) 97,87 %
03.10.2021 02:10 17,9 C 17,2 C 13,9 C 86 % 998,1 hPa 0,0 l/m 0 min 2 min 0 W/m 25,7 km/h (4 Bft) 97,87 %
03.10.2021 02:12 17,9 C 17,2 C 13,9 C 85 % 998,1 hPa 0,0 l/m 0 min 2 min 0 W/m 35,4 km/h (5 Bft) 97,83 %
03.10.2021 02:14 18,0 C 17,2 C 13,9 C 85 % 998,2 hPa 0,0 l/m 0 min 2 min 0 W/m 54,7 km/h (7 Bft) 97,87 %
03.10.2021 02:16 18,0 C 17,2 C 14,5 C 85 % 998,2 hPa 0,0 l/m 0 min 2 min 0 W/m 25,7 km/h (4 Bft) 97,87 %
03.10.2021 02:18 18,1 C 17,2 C 14,5 C 85 % 998,3 hPa 0,0 l/m 0 min 2 min 0 W/m 38,6 km/h (5 Bft) 95,74 %
03.10.2021 02:20 18,1 C 17,2 C 14,5 C 85 % 998,3 hPa 0,0 l/m 0 min 2 min 0 W/m 19,3 km/h (3 Bft) 97,87 %
03.10.2021 02:22 18,1 C 17,2 C 14,5 C 85 % 998,2 hPa 0,0 l/m 0 min 2 min 0 W/m 19,3 km/h (3 Bft) 95,74 %
03.10.2021 02:24 18,1 C 17,2 C 14,5 C 85 % 998,2 hPa 0,0 l/m 0 min 2 min 0 W/m 29,0 km/h (5 Bft) 97,83 %
03.10.2021 02:26 18,0 C 16,7 C 14,5 C 86 % 998,2 hPa 0,2 l/m 0 min 2 min 0 W/m 22,5 km/h (4 Bft) 97,87 %
03.10.2021 02:28 18,0 C 16,7 C 14,5 C 86 % 998,2 hPa 0,0 l/m 0 min 2 min 0 W/m 22,5 km/h (4 Bft) 97,87 %
03.10.2021 02:30 18,0 C 16,7 C 14,5 C 86 % 998,1 hPa 0,0 l/m 0 min 2 min 0 W/m 29,0 km/h (5 Bft) 95,74 %
03.10.2021 02:32 18,0 C 16,7 C 14,5 C 86 % 998,3 hPa 0,0 l/m 0 min 2 min 0 W/m 16,1 km/h (3 Bft) 97,87 %
03.10.2021 02:34 18,0 C 16,7 C 14,5 C 86 % 998,2 hPa 0,0 l/m 0 min 2 min 0 W/m 29,0 km/h (5 Bft) 97,83 %
03.10.2021 02:36 18,0 C 16,7 C 14,5 C 86 % 998,2 hPa 0,0 l/m 0 min 2 min 0 W/m 32,2 km/h (5 Bft) 93,62 %
03.10.2021 02:38 18,0 C 16,7 C 14,5 C 86 % 998,3 hPa 0,0 l/m 0 min 2 min 0 W/m 25,7 km/h (4 Bft) 97,87 %
03.10.2021 02:40 18,0 C 16,7 C 14,5 C 86 % 998,4 hPa 0,0 l/m 0 min 2 min 0 W/m 16,1 km/h (3 Bft) 95,74 %
03.10.2021 02:42 18,0 C 16,7 C 14,5 C 86 % 998,2 hPa 0,0 l/m 0 min 2 min 0 W/m 25,7 km/h (4 Bft) 95,74 %
03.10.2021 02:44 18,0 C 16,7 C 14,5 C 86 % 998,2 hPa 0,0 l/m 0 min 2 min 0 W/m 25,7 km/h (4 Bft) 95,74 %
03.10.2021 02:46 18,0 C 16,7 C 14,5 C 86 % 998,3 hPa 0,0 l/m 0 min 2 min 0 W/m 29,0 km/h (5 Bft) 93,48 %
03.10.2021 02:48 17,9 C 16,7 C 14,5 C 87 % 998,2 hPa 0,0 l/m 0 min 2 min 0 W/m 19,3 km/h (3 Bft) 97,87 %
03.10.2021 02:50 17,9 C 16,7 C 14,5 C 87 % 998,2 hPa 0,0 l/m 0 min 2 min 0 W/m 35,4 km/h (5 Bft) 93,62 %
03.10.2021 02:52 17,9 C 16,7 C 14,5 C 87 % 998,3 hPa 0,0 l/m 0 min 2 min 0 W/m 19,3 km/h (3 Bft) 97,87 %
03.10.2021 02:54 17,9 C 16,7 C 14,5 C 87 % 998,2 hPa 0,0 l/m 0 min 0 min 0 W/m 16,1 km/h (3 Bft) 97,87 %
03.10.2021 02:56 17,9 C 16,7 C 14,5 C 87 % 998,2 hPa 0,0 l/m 0 min 0 min 0 W/m 19,3 km/h (3 Bft) 95,74 %
03.10.2021 02:58 17,9 C 16,7 C 14,5 C 87 % 998,2 hPa 0,0 l/m 0 min 0 min 0 W/m 19,3 km/h (3 Bft) 95,65 %
03.10.2021 03:00 17,9 C 16,7 C 14,5 C 87 % 998,1 hPa 0,0 l/m 0 min 0 min 0 W/m 22,5 km/h (4 Bft) 93,62 %
03.10.2021 03:02 17,9 C 16,7 C 14,5 C 87 % 998,2 hPa 0,0 l/m 0 min 0 min 0 W/m 19,3 km/h (3 Bft) 95,83 %
03.10.2021 03:04 17,9 C 16,7 C 14,5 C 87 % 998,2 hPa 0,0 l/m 0 min 0 min 0 W/m 19,3 km/h (3 Bft) 95,74 %
03.10.2021 03:06 17,9 C 16,7 C 14,5 C 87 % 998,2 hPa 0,0 l/m 0 min 0 min 0 W/m 16,1 km/h (3 Bft) 97,87 %
03.10.2021 03:08 17,9 C 17,2 C 15,0 C 87 % 998,2 hPa 0,0 l/m 0 min 0 min 0 W/m 22,5 km/h (4 Bft) 97,83 %
03.10.2021 03:10 17,9 C 17,2 C 15,0 C 87 % 998,2 hPa 0,0 l/m 0 min 0 min 0 W/m 29,0 km/h (5 Bft) 97,87 %
03.10.2021 03:12 17,9 C 17,2 C 15,0 C 87 % 998,2 hPa 0,0 l/m 0 min 0 min 0 W/m 19,3 km/h (3 Bft) 95,74 %
03.10.2021 03:14 17,9 C 17,2 C 15,0 C 86 % 998,2 hPa 0,0 l/m 0 min 0 min 0 W/m 22,5 km/h (4 Bft) 97,87 %
03.10.2021 03:16 17,9 C 17,2 C 15,0 C 86 % 998,2 hPa 0,0 l/m 0 min 2 min 0 W/m 19,3 km/h (3 Bft) 97,87 %
03.10.2021 03:18 17,9 C 17,2 C 15,0 C 86 % 998,2 hPa 0,0 l/m 0 min 2 min 0 W/m 29,0 km/h (5 Bft) 97,87 %
03.10.2021 03:20 17,9 C 16,7 C 15,0 C 86 % 998,3 hPa 0,0 l/m 0 min 2 min 0 W/m 32,2 km/h (5 Bft) 97,83 %
03.10.2021 03:22 17,9 C 16,7 C 15,0 C 86 % 998,1 hPa 0,0 l/m 0 min 2 min 0 W/m 25,7 km/h (4 Bft) 97,87 %
03.10.2021 03:24 17,9 C 16,7 C 15,0 C 87 % 998,2 hPa 0,0 l/m 0 min 2 min 0 W/m 29,0 km/h (5 Bft) 95,74 %
03.10.2021 03:26 17,9 C 16,7 C 15,0 C 87 % 998,1 hPa 0,0 l/m 0 min 2 min 0 W/m 25,7 km/h (4 Bft) 95,74 %
03.10.2021 03:28 17,8 C 16,7 C 15,0 C 87 % 998,1 hPa 0,0 l/m 0 min 2 min 0 W/m 25,7 km/h (4 Bft) 97,87 %
03.10.2021 03:30 17,8 C 16,7 C 15,0 C 87 % 998,2 hPa 0,0 l/m 0 min 2 min 0 W/m 19,3 km/h (3 Bft) 97,87 %
03.10.2021 03:32 17,8 C 16,7 C 15,0 C 87 % 998,1 hPa 0,0 l/m 0 min 2 min 0 W/m 29,0 km/h (5 Bft) 97,83 %
03.10.2021 03:34 17,8 C 16,7 C 15,0 C 87 % 998,2 hPa 0,0 l/m 0 min 2 min 0 W/m 12,9 km/h (3 Bft) 95,74 %
03.10.2021 03:36 17,8 C 16,7 C 15,0 C 87 % 998,1 hPa 0,0 l/m 0 min 2 min 0 W/m 19,3 km/h (3 Bft) 97,87 %
03.10.2021 03:38 17,8 C 16,7 C 15,0 C 87 % 998,1 hPa 0,0 l/m 0 min 2 min 0 W/m 29,0 km/h (5 Bft) 97,87 %
03.10.2021 03:40 17,8 C 17,2 C 15,6 C 87 % 998,1 hPa 0,0 l/m 0 min 2 min 0 W/m 19,3 km/h (3 Bft) 97,87 %
03.10.2021 03:42 17,8 C 17,2 C 15,6 C 87 % 998,1 hPa 0,0 l/m 0 min 2 min 0 W/m 22,5 km/h (4 Bft) 100,00 %
03.10.2021 03:44 17,9 C 17,2 C 15,6 C 86 % 998,1 hPa 0,0 l/m 0 min 2 min 0 W/m 38,6 km/h (5 Bft) 100,00 %
03.10.2021 03:46 17,9 C 17,2 C 15,6 C 86 % 998,1 hPa 0,0 l/m 0 min 2 min 0 W/m 25,7 km/h (4 Bft) 100,00 %
03.10.2021 03:48 17,9 C 17,2 C 15,6 C 86 % 998,1 hPa 0,0 l/m 0 min 0 min 0 W/m 12,9 km/h (3 Bft) 100,00 %
03.10.2021 03:50 17,9 C 17,2 C 15,6 C 86 % 998,0 hPa 0,0 l/m 0 min 0 min 0 W/m 22,5 km/h (4 Bft) 100,00 %
03.10.2021 03:52 17,9 C 17,2 C 15,6 C 86 % 997,9 hPa 0,0 l/m 0 min 0 min 0 W/m 22,5 km/h (4 Bft) 100,00 %
03.10.2021 03:54 17,9 C 17,2 C 15,6 C 86 % 997,8 hPa 0,0 l/m 0 min 0 min 0 W/m 19,3 km/h (3 Bft) 100,00 %
03.10.2021 03:56 17,9 C 17,2 C 15,6 C 86 % 997,9 hPa 0,0 l/m 0 min 0 min 0 W/m 12,9 km/h (3 Bft) 100,00 %
03.10.2021 03:58 17,9 C 17,2 C 15,6 C 86 % 997,9 hPa 0,0 l/m 0 min 0 min 0 W/m 16,1 km/h (3 Bft) 100,00 %
03.10.2021 04:00 17,9 C 17,2 C 15,6 C 85 % 997,8 hPa 0,0 l/m 0 min 0 min 0 W/m 22,5 km/h (4 Bft) 100,00 %
03.10.2021 04:02 17,9 C 17,2 C 15,6 C 85 % 997,8 hPa 0,0 l/m 0 min 0 min 0 W/m 19,3 km/h (3 Bft) 100,00 %
03.10.2021 04:04 17,9 C 17,2 C 15,6 C 85 % 997,7 hPa 0,0 l/m 0 min 0 min 0 W/m 16,1 km/h (3 Bft) 100,00 %
03.10.2021 04:06 17,9 C 17,2 C 15,6 C 85 % 997,8 hPa 0,0 l/m 0 min 0 min 0 W/m 22,5 km/h (4 Bft) 100,00 %
03.10.2021 04:08 17,9 C 17,2 C 15,6 C 85 % 997,8 hPa 0,0 l/m 0 min 0 min 0 W/m 22,5 km/h (4 Bft) 100,00 %
03.10.2021 04:10 18,0 C 17,2 C 15,6 C 85 % 997,8 hPa 0,0 l/m 0 min 0 min 0 W/m 12,9 km/h (3 Bft) 100,00 %
03.10.2021 04:12 18,0 C 17,2 C 15,6 C 85 % 997,7 hPa 0,0 l/m 0 min 0 min 0 W/m 19,3 km/h (3 Bft) 100,00 %
03.10.2021 04:14 18,0 C 17,2 C 15,6 C 85 % 997,7 hPa 0,0 l/m 0 min 0 min 0 W/m 19,3 km/h (3 Bft) 100,00 %
03.10.2021 04:16 18,0 C 17,2 C 15,6 C 85 % 997,7 hPa 0,0 l/m 0 min 0 min 0 W/m 22,5 km/h (4 Bft) 100,00 %
03.10.2021 04:18 18,0 C 17,2 C 15,6 C 85 % 997,6 hPa 0,0 l/m 0 min 0 min 0 W/m 19,3 km/h (3 Bft) 100,00 %
03.10.2021 04:20 18,0 C 17,2 C 15,6 C 85 % 997,7 hPa 0,0 l/m 0 min 0 min 0 W/m 16,1 km/h (3 Bft) 97,87 %
03.10.2021 04:22 18,0 C 17,2 C 15,6 C 85 % 997,7 hPa 0,0 l/m 0 min 0 min 0 W/m 16,1 km/h (3 Bft) 100,00 %
03.10.2021 04:24 18,0 C 17,2 C 15,6 C 85 % 997,7 hPa 0,0 l/m 0 min 0 min 0 W/m 19,3 km/h (3 Bft) 100,00 %
03.10.2021 04:26 18,0 C 17,2 C 15,6 C 85 % 997,6 hPa 0,0 l/m 0 min 0 min 0 W/m 35,4 km/h (5 Bft) 100,00 %
03.10.2021 04:28 18,0 C 17,2 C 15,6 C 85 % 997,6 hPa 0,0 l/m 0 min 0 min 0 W/m 25,7 km/h (4 Bft) 100,00 %
03.10.2021 04:30 18,0 C 17,2 C 15,6 C 85 % 997,6 hPa 0,0 l/m 0 min 0 min 0 W/m 16,1 km/h (3 Bft) 97,83 %
03.10.2021 04:32 18,0 C 17,2 C 15,6 C 85 % 997,5 hPa 0,0 l/m 0 min 0 min 0 W/m 12,9 km/h (3 Bft) 97,92 %
03.10.2021 04:34 18,0 C 17,2 C 15,6 C 85 % 997,5 hPa 0,0 l/m 0 min 0 min 0 W/m 32,2 km/h (5 Bft) 95,74 %
03.10.2021 04:36 18,0 C 17,2 C 15,6 C 85 % 997,6 hPa 0,0 l/m 0 min 2 min 0 W/m 16,1 km/h (3 Bft) 95,74 %
03.10.2021 04:38 18,0 C 17,2 C 15,6 C 85 % 997,4 hPa 0,0 l/m 0 min 0 min 0 W/m 16,1 km/h (3 Bft) 97,87 %
03.10.2021 04:40 18,0 C 17,2 C 15,6 C 85 % 997,5 hPa 0,0 l/m 0 min 0 min 0 W/m 19,3 km/h (3 Bft) 97,87 %
03.10.2021 04:42 18,0 C 17,2 C 15,6 C 85 % 997,5 hPa 0,0 l/m 0 min 2 min 0 W/m 19,3 km/h (3 Bft) 95,65 %
03.10.2021 04:44 18,0 C 17,2 C 15,0 C 85 % 997,5 hPa 0,0 l/m 0 min 0 min 0 W/m 22,5 km/h (4 Bft) 93,62 %
03.10.2021 04:46 18,0 C 17,2 C 15,0 C 85 % 997,4 hPa 0,0 l/m 0 min 2 min 0 W/m 25,7 km/h (4 Bft) 95,74 %
03.10.2021 04:48 17,9 C 16,7 C 15,0 C 85 % 997,5 hPa 0,0 l/m 0 min 0 min 0 W/m 25,7 km/h (4 Bft) 93,62 %
03.10.2021 04:50 17,9 C 17,2 C 15,0 C 85 % 997,5 hPa 0,0 l/m 0 min 0 min 0 W/m 25,7 km/h (4 Bft) 95,74 %
03.10.2021 04:52 17,9 C 17,2 C 15,0 C 85 % 997,4 hPa 0,0 l/m 0 min 2 min 0 W/m 29,0 km/h (5 Bft) 95,74 %
03.10.2021 04:54 17,9 C 16,7 C 15,0 C 85 % 997,5 hPa 0,0 l/m 0 min 2 min 0 W/m 35,4 km/h (5 Bft) 93,48 %
03.10.2021 04:56 17,9 C 16,7 C 15,0 C 85 % 997,4 hPa 0,0 l/m 0 min 2 min 0 W/m 16,1 km/h (3 Bft) 95,74 %
03.10.2021 04:58 17,8 C 16,7 C 14,5 C 85 % 997,4 hPa 0,0 l/m 0 min 2 min 0 W/m 19,3 km/h (3 Bft) 95,74 %
03.10.2021 05:00 17,8 C 16,7 C 14,5 C 85 % 997,3 hPa 0,0 l/m 0 min 2 min 0 W/m 25,7 km/h (4 Bft) 95,74 %
03.10.2021 05:02 17,8 C 16,7 C 13,9 C 86 % 997,3 hPa 0,0 l/m 0 min 2 min 0 W/m 29,0 km/h (5 Bft) 97,87 %
03.10.2021 05:04 17,7 C 16,7 C 13,9 C 86 % 997,3 hPa 0,0 l/m 0 min 2 min 0 W/m 35,4 km/h (5 Bft) 97,83 %
03.10.2021 05:06 17,6 C 16,7 C 13,9 C 86 % 997,3 hPa 0,0 l/m 0 min 2 min 0 W/m 22,5 km/h (4 Bft) 97,87 %
03.10.2021 05:08 17,6 C 16,7 C 13,9 C 86 % 997,3 hPa 0,0 l/m 0 min 2 min 0 W/m 19,3 km/h (3 Bft) 97,87 %
03.10.2021 05:10 17,5 C 16,7 C 13,9 C 86 % 997,3 hPa 0,0 l/m 0 min 2 min 0 W/m 22,5 km/h (4 Bft) 97,87 %
03.10.2021 05:12 17,5 C 16,1 C 13,9 C 86 % 997,2 hPa 0,0 l/m 0 min 2 min 0 W/m 29,0 km/h (5 Bft) 95,74 %
03.10.2021 05:14 17,5 C 16,1 C 13,9 C 86 % 997,3 hPa 0,0 l/m 0 min 2 min 0 W/m 16,1 km/h (3 Bft) 97,87 %
03.10.2021 05:16 17,4 C 16,1 C 13,9 C 86 % 997,3 hPa 0,0 l/m 0 min 2 min 0 W/m 16,1 km/h (3 Bft) 97,87 %
03.10.2021 05:18 17,4 C 16,1 C 13,9 C 87 % 997,2 hPa 0,0 l/m 0 min 2 min 0 W/m 19,3 km/h (3 Bft) 97,83 %
03.10.2021 05:20 17,4 C 16,7 C 13,9 C 87 % 997,3 hPa 0,0 l/m 0 min 2 min 0 W/m 16,1 km/h (3 Bft) 97,87 %
03.10.2021 05:22 17,4 C 16,7 C 13,9 C 87 % 997,2 hPa 0,0 l/m 0 min 0 min 0 W/m 16,1 km/h (3 Bft) 97,87 %
03.10.2021 05:24 17,3 C 16,7 C 13,9 C 86 % 997,1 hPa 0,0 l/m 0 min 0 min 0 W/m 29,0 km/h (5 Bft) 97,87 %
03.10.2021 05:26 17,3 C 16,7 C 13,9 C 86 % 997,2 hPa 0,0 l/m 0 min 0 min 0 W/m 22,5 km/h (4 Bft) 95,74 %
03.10.2021 05:28 17,3 C 16,7 C 14,5 C 86 % 997,2 hPa 0,0 l/m 0 min 0 min 0 W/m 22,5 km/h (4 Bft) 97,83 %
03.10.2021 05:30 17,3 C 16,7 C 14,5 C 86 % 997,1 hPa 0,0 l/m 0 min 0 min 0 W/m 25,7 km/h (4 Bft) 95,74 %
03.10.2021 05:32 17,4 C 16,7 C 14,5 C 86 % 997,1 hPa 0,2 l/m 0 min 0 min 0 W/m 25,7 km/h (4 Bft) 100,00 %
03.10.2021 05:34 17,4 C 16,7 C 14,5 C 85 % 997,2 hPa 0,0 l/m 0 min 0 min 0 W/m 19,3 km/h (3 Bft) 100,00 %
03.10.2021 05:36 17,4 C 16,7 C 14,5 C 85 % 997,1 hPa 0,0 l/m 0 min 0 min 0 W/m 19,3 km/h (3 Bft) 97,87 %
03.10.2021 05:38 17,4 C 16,7 C 14,5 C 85 % 997,1 hPa 0,0 l/m 0 min 0 min 0 W/m 16,1 km/h (3 Bft) 100,00 %
03.10.2021 05:40 17,4 C 16,7 C 15,0 C 85 % 997,1 hPa 0,0 l/m 0 min 0 min 0 W/m 12,9 km/h (3 Bft) 95,65 %
03.10.2021 05:42 17,4 C 16,7 C 15,0 C 85 % 997,1 hPa 0,0 l/m 0 min 0 min 0 W/m 16,1 km/h (3 Bft) 97,87 %
03.10.2021 05:44 17,4 C 16,7 C 15,0 C 84 % 997,2 hPa 0,0 l/m 0 min 0 min 0 W/m 25,7 km/h (4 Bft) 97,87 %
03.10.2021 05:46 17,4 C 16,7 C 15,0 C 84 % 997,1 hPa 0,0 l/m 0 min 0 min 0 W/m 22,5 km/h (4 Bft) 97,87 %
03.10.2021 05:48 17,4 C 16,7 C 15,0 C 84 % 997,0 hPa 0,0 l/m 0 min 0 min 0 W/m 19,3 km/h (3 Bft) 100,00 %
03.10.2021 05:50 17,4 C 16,7 C 15,0 C 84 % 997,0 hPa 0,0 l/m 0 min 0 min 0 W/m 12,9 km/h (3 Bft) 100,00 %
03.10.2021 05:52 17,4 C 16,7 C 15,0 C 84 % 997,0 hPa 0,0 l/m 0 min 0 min 0 W/m 22,5 km/h (4 Bft) 95,65 %
03.10.2021 05:54 17,4 C 16,7 C 15,0 C 84 % 997,1 hPa 0,0 l/m 0 min 0 min 0 W/m 19,3 km/h (3 Bft) 97,87 %
03.10.2021 05:56 17,4 C 16,7 C 15,0 C 84 % 997,1 hPa 0,0 l/m 0 min 0 min 0 W/m 12,9 km/h (3 Bft) 95,74 %
03.10.2021 05:58 17,4 C 16,7 C 15,0 C 84 % 997,1 hPa 0,0 l/m 0 min 0 min 0 W/m 12,9 km/h (3 Bft) 95,74 %
03.10.2021 06:00 17,3 C 16,7 C 15,0 C 84 % 997,1 hPa 0,0 l/m 0 min 0 min 0 W/m 22,5 km/h (4 Bft) 97,87 %
03.10.2021 06:02 17,3 C 16,7 C 15,0 C 84 % 997,1 hPa 0,0 l/m 0 min 0 min 0 W/m 25,7 km/h (4 Bft) 97,83 %
03.10.2021 06:04 17,4 C 16,7 C 15,0 C 84 % 997,1 hPa 0,0 l/m 0 min 2 min 0 W/m 19,3 km/h (3 Bft) 97,87 %
03.10.2021 06:08 17,4 C 16,7 C 14,5 C 84 % 997,1 hPa 0,0 l/m 0 min 4 min 0 W/m 22,5 km/h (4 Bft) 97,96 %
03.10.2021 06:10 17,3 C 16,7 C 13,9 C 84 % 997,1 hPa 0,0 l/m 0 min 2 min 0 W/m 16,1 km/h (3 Bft) 97,87 %
03.10.2021 06:12 17,3 C 16,7 C 13,9 C 84 % 997,1 hPa 0,0 l/m 0 min 2 min 0 W/m 25,7 km/h (4 Bft) 95,74 %
03.10.2021 06:14 17,3 C 16,7 C 13,9 C 84 % 997,0 hPa 0,0 l/m 0 min 2 min 0 W/m 19,3 km/h (3 Bft) 97,83 %
03.10.2021 06:16 17,3 C 16,7 C 13,9 C 84 % 997,0 hPa 0,0 l/m 0 min 2 min 0 W/m 29,0 km/h (5 Bft) 97,87 %
03.10.2021 06:18 17,3 C 16,7 C 13,9 C 84 % 997,0 hPa 0,0 l/m 0 min 0 min 0 W/m 16,1 km/h (3 Bft) 97,87 %
03.10.2021 06:20 17,3 C 16,7 C 13,9 C 84 % 997,0 hPa 0,0 l/m 0 min 0 min 0 W/m 19,3 km/h (3 Bft) 97,87 %
03.10.2021 06:22 17,3 C 16,7 C 14,5 C 83 % 997,0 hPa 0,0 l/m 0 min 0 min 0 W/m 16,1 km/h (3 Bft) 97,87 %
03.10.2021 06:24 17,3 C 16,7 C 14,5 C 83 % 996,9 hPa 0,0 l/m 0 min 2 min 0 W/m 22,5 km/h (4 Bft) 97,87 %
03.10.2021 06:26 17,3 C 16,7 C 14,5 C 83 % 996,9 hPa 0,0 l/m 0 min 0 min 0 W/m 19,3 km/h (3 Bft) 97,83 %
03.10.2021 06:28 17,3 C 16,7 C 14,5 C 83 % 996,9 hPa 0,0 l/m 0 min 0 min 0 W/m 19,3 km/h (3 Bft) 97,87 %
03.10.2021 06:30 17,4 C 16,7 C 15,0 C 83 % 996,9 hPa 0,0 l/m 0 min 0 min 0 W/m 22,5 km/h (4 Bft) 97,87 %
03.10.2021 06:32 17,4 C 16,7 C 15,0 C 83 % 996,9 hPa 0,0 l/m 0 min 0 min 0 W/m 22,5 km/h (4 Bft) 97,87 %
03.10.2021 06:34 17,4 C 16,7 C 15,0 C 82 % 996,9 hPa 0,0 l/m 0 min 0 min 0 W/m 25,7 km/h (4 Bft) 97,87 %
03.10.2021 06:36 17,5 C 16,7 C 15,0 C 82 % 997,0 hPa 0,0 l/m 0 min 0 min 0 W/m 12,9 km/h (3 Bft) 97,83 %
03.10.2021 06:38 17,5 C 16,7 C 15,0 C 82 % 997,0 hPa 0,0 l/m 0 min 0 min 0 W/m 19,3 km/h (3 Bft) 97,87 %
03.10.2021 06:40 17,5 C 16,7 C 15,0 C 82 % 996,9 hPa 0,0 l/m 0 min 0 min 0 W/m 16,1 km/h (3 Bft) 97,87 %
03.10.2021 06:42 17,5 C 16,7 C 15,0 C 82 % 996,9 hPa 0,0 l/m 0 min 0 min 0 W/m 19,3 km/h (3 Bft) 95,74 %
03.10.2021 06:44 17,5 C 16,7 C 15,0 C 82 % 996,9 hPa 0,0 l/m 0 min 0 min 0 W/m 16,1 km/h (3 Bft) 95,74 %
03.10.2021 06:46 17,5 C 16,7 C 15,0 C 82 % 996,9 hPa 0,0 l/m 0 min 0 min 0 W/m 22,5 km/h (4 Bft) 97,87 %
03.10.2021 06:48 17,5 C 16,7 C 15,0 C 82 % 996,9 hPa 0,0 l/m 0 min 0 min 0 W/m 19,3 km/h (3 Bft) 97,83 %
03.10.2021 06:50 17,6 C 16,7 C 15,0 C 81 % 997,0 hPa 0,0 l/m 0 min 0 min 0 W/m 19,3 km/h (3 Bft) 97,87 %
03.10.2021 06:52 17,6 C 16,7 C 15,0 C 81 % 997,0 hPa 0,0 l/m 0 min 0 min 0 W/m 16,1 km/h (3 Bft) 95,74 %
03.10.2021 06:54 17,6 C 17,2 C 15,0 C 81 % 996,9 hPa 0,0 l/m 0 min 0 min 0 W/m 16,1 km/h (3 Bft) 100,00 %
03.10.2021 06:56 17,7 C 17,2 C 15,6 C 81 % 996,8 hPa 0,0 l/m 0 min 0 min 0 W/m 12,9 km/h (3 Bft) 97,87 %
03.10.2021 06:58 17,7 C 17,2 C 15,6 C 81 % 996,8 hPa 0,0 l/m 0 min 0 min 0 W/m 25,7 km/h (4 Bft) 95,74 %
03.10.2021 07:00 17,8 C 17,2 C 15,6 C 80 % 996,8 hPa 0,0 l/m 0 min 0 min 0 W/m 19,3 km/h (3 Bft) 100,00 %
03.10.2021 07:02 17,8 C 17,2 C 15,6 C 80 % 996,7 hPa 0,0 l/m 0 min 0 min 0 W/m 29,0 km/h (5 Bft) 100,00 %
03.10.2021 07:04 17,8 C 17,2 C 15,6 C 80 % 996,7 hPa 0,0 l/m 0 min 0 min 0 W/m 19,3 km/h (3 Bft) 97,87 %
03.10.2021 07:06 17,9 C 17,2 C 15,6 C 80 % 996,7 hPa 0,0 l/m 0 min 0 min 0 W/m 19,3 km/h (3 Bft) 100,00 %
03.10.2021 07:08 17,9 C 17,2 C 15,6 C 79 % 996,7 hPa 0,0 l/m 0 min 0 min 0 W/m 19,3 km/h (3 Bft) 97,87 %
03.10.2021 07:10 17,9 C 17,2 C 15,6 C 79 % 996,7 hPa 0,0 l/m 0 min 0 min 0 W/m 19,3 km/h (3 Bft) 100,00 %
03.10.2021 07:12 17,9 C 17,2 C 15,6 C 79 % 996,7 hPa 0,0 l/m 0 min 0 min 0 W/m 29,0 km/h (5 Bft) 100,00 %
03.10.2021 07:14 18,0 C 17,2 C 15,0 C 79 % 996,6 hPa 0,0 l/m 0 min 0 min 0 W/m 16,1 km/h (3 Bft) 97,87 %
03.10.2021 07:16 18,0 C 17,2 C 15,0 C 79 % 996,6 hPa 0,0 l/m 0 min 0 min 0 W/m 12,9 km/h (3 Bft) 100,00 %
03.10.2021 07:18 18,0 C 17,2 C 15,0 C 79 % 996,6 hPa 0,0 l/m 0 min 2 min 0 W/m 22,5 km/h (4 Bft) 100,00 %
03.10.2021 07:20 18,0 C 17,2 C 15,0 C 79 % 996,6 hPa 0,0 l/m 0 min 2 min 0 W/m 16,1 km/h (3 Bft) 100,00 %
03.10.2021 07:22 18,0 C 17,2 C 15,0 C 79 % 996,6 hPa 0,0 l/m 0 min 2 min 0 W/m 16,1 km/h (3 Bft) 97,87 %
03.10.2021 07:24 18,0 C 17,2 C 14,5 C 80 % 996,6 hPa 0,0 l/m 0 min 2 min 0 W/m 19,3 km/h (3 Bft) 100,00 %
03.10.2021 07:26 18,0 C 17,2 C 15,0 C 80 % 996,6 hPa 0,0 l/m 0 min 2 min 0 W/m 16,1 km/h (3 Bft) 100,00 %
03.10.2021 07:28 18,0 C 17,2 C 15,0 C 80 % 996,6 hPa 0,0 l/m 0 min 2 min 0 W/m 19,3 km/h (3 Bft) 100,00 %
03.10.2021 07:30 18,0 C 17,2 C 14,5 C 80 % 996,5 hPa 0,0 l/m 0 min 2 min 0 W/m 16,1 km/h (3 Bft) 97,87 %
03.10.2021 07:32 18,0 C 17,2 C 14,5 C 80 % 996,6 hPa 0,0 l/m 0 min 2 min 0 W/m 22,5 km/h (4 Bft) 97,87 %
03.10.2021 07:34 18,0 C 17,2 C 14,5 C 80 % 996,5 hPa 0,0 l/m 0 min 2 min 0 W/m 19,3 km/h (3 Bft) 95,65 %
03.10.2021 07:36 18,0 C 17,2 C 14,5 C 80 % 996,5 hPa 0,0 l/m 0 min 2 min 0 W/m 12,9 km/h (3 Bft) 97,87 %
03.10.2021 07:38 18,0 C 17,2 C 14,5 C 80 % 996,5 hPa 0,0 l/m 0 min 2 min 0 W/m 22,5 km/h (4 Bft) 97,14 %
03.10.2021 07:40 18,0 C 17,2 C 15,0 C 80 % 996,5 hPa 0,0 l/m 0 min 2 min 0 W/m 19,3 km/h (3 Bft) 98,18 %
03.10.2021 07:42 18,0 C 17,2 C 14,5 C 80 % 996,5 hPa 0,0 l/m 0 min 2 min 0 W/m 16,1 km/h (3 Bft) 97,87 %
03.10.2021 07:44 18,0 C 17,2 C 14,5 C 80 % 996,5 hPa 0,0 l/m 0 min 2 min 0 W/m 19,3 km/h (3 Bft) 97,87 %
03.10.2021 07:46 18,0 C 17,2 C 13,9 C 80 % 996,5 hPa 0,0 l/m 0 min 2 min 0 W/m 16,1 km/h (3 Bft) 97,87 %
03.10.2021 07:48 18,0 C 16,7 C 13,9 C 80 % 996,6 hPa 0,0 l/m 0 min 2 min 0 W/m 22,5 km/h (4 Bft) 95,65 %
03.10.2021 07:50 18,0 C 16,7 C 13,9 C 80 % 996,6 hPa 0,0 l/m 0 min 2 min 0 W/m 12,9 km/h (3 Bft) 97,87 %
03.10.2021 07:52 18,0 C 16,7 C 13,9 C 80 % 996,5 hPa 0,0 l/m 0 min 2 min 0 W/m 22,5 km/h (4 Bft) 97,87 %
03.10.2021 07:54 18,0 C 16,7 C 13,9 C 81 % 996,5 hPa 0,0 l/m 0 min 2 min 0 W/m 19,3 km/h (3 Bft) 97,87 %
03.10.2021 07:56 17,9 C 16,7 C 13,9 C 81 % 996,6 hPa 0,0 l/m 0 min 2 min 0 W/m 16,1 km/h (3 Bft) 97,87 %
03.10.2021 07:58 17,9 C 16,7 C 13,4 C 81 % 996,5 hPa 0,2 l/m 0 min 2 min 0 W/m 25,7 km/h (4 Bft) 97,87 %
03.10.2021 08:00 17,9 C 16,7 C 13,4 C 82 % 996,5 hPa 0,0 l/m 0 min 2 min 0 W/m 25,7 km/h (4 Bft) 97,83 %
03.10.2021 08:02 17,8 C 16,7 C 13,4 C 82 % 996,6 hPa 0,0 l/m 0 min 2 min 0 W/m 12,9 km/h (3 Bft) 95,74 %
03.10.2021 08:04 17,8 C 16,7 C 13,4 C 83 % 996,6 hPa 0,0 l/m 0 min 2 min 0 W/m 12,9 km/h (3 Bft) 95,74 %
03.10.2021 08:06 17,7 C 16,1 C 13,4 C 83 % 996,5 hPa 0,0 l/m 0 min 2 min 0 W/m 19,3 km/h (3 Bft) 93,62 %
03.10.2021 08:08 17,6 C 16,1 C 13,4 C 83 % 996,6 hPa 0,0 l/m 0 min 2 min 4 W/m 12,9 km/h (3 Bft) 97,87 %
03.10.2021 08:10 17,6 C 16,1 C 13,4 C 84 % 996,6 hPa 0,0 l/m 0 min 2 min 0 W/m 16,1 km/h (3 Bft) 97,87 %
03.10.2021 08:12 17,5 C 16,1 C 13,4 C 84 % 996,5 hPa 0,0 l/m 0 min 2 min 0 W/m 16,1 km/h (3 Bft) 95,65 %
03.10.2021 08:14 17,5 C 16,1 C 13,4 C 84 % 996,7 hPa 0,0 l/m 0 min 2 min 0 W/m 12,9 km/h (3 Bft) 95,74 %
03.10.2021 08:16 17,4 C 16,1 C 13,4 C 85 % 996,6 hPa 0,2 l/m 0 min 2 min 3 W/m 16,1 km/h (3 Bft) 97,87 %
03.10.2021 08:18 17,4 C 16,1 C 13,4 C 85 % 996,6 hPa 0,0 l/m 0 min 2 min 5 W/m 16,1 km/h (3 Bft) 97,87 %
03.10.2021 08:20 17,4 C 16,1 C 13,4 C 85 % 996,6 hPa 0,2 l/m 0 min 2 min 5 W/m 16,1 km/h (3 Bft) 97,87 %
03.10.2021 08:22 17,3 C 16,1 C 13,4 C 86 % 996,7 hPa 0,0 l/m 0 min 2 min 5 W/m 16,1 km/h (3 Bft) 95,65 %
03.10.2021 08:24 17,3 C 16,1 C 13,4 C 86 % 996,6 hPa 0,0 l/m 0 min 2 min 5 W/m 16,1 km/h (3 Bft) 100,00 %
03.10.2021 08:26 17,3 C 16,1 C 13,4 C 86 % 996,7 hPa 0,0 l/m 0 min 2 min 7 W/m 12,9 km/h (3 Bft) 97,87 %
03.10.2021 08:28 17,2 C 16,1 C 13,4 C 86 % 996,6 hPa 0,0 l/m 0 min 2 min 8 W/m 22,5 km/h (4 Bft) 95,74 %
03.10.2021 08:30 17,1 C 16,1 C 13,4 C 87 % 996,7 hPa 0,0 l/m 0 min 2 min 8 W/m 16,1 km/h (3 Bft) 91,49 %
03.10.2021 08:32 17,1 C 16,1 C 13,4 C 87 % 996,7 hPa 0,0 l/m 0 min 2 min 11 W/m 19,3 km/h (3 Bft) 95,74 %
03.10.2021 08:34 17,1 C 16,1 C 13,4 C 87 % 996,7 hPa 0,0 l/m 0 min 2 min 12 W/m 19,3 km/h (3 Bft) 95,65 %
03.10.2021 08:36 17,0 C 16,1 C 13,4 C 87 % 996,7 hPa 0,0 l/m 0 min 2 min 11 W/m 16,1 km/h (3 Bft) 95,74 %
03.10.2021 08:38 17,0 C 16,1 C 13,4 C 88 % 996,7 hPa 0,2 l/m 0 min 2 min 12 W/m 6,4 km/h (2 Bft) 96,00 %
03.10.2021 08:40 17,0 C 16,1 C 13,4 C 88 % 996,7 hPa 0,0 l/m 0 min 2 min 13 W/m 16,1 km/h (3 Bft) 95,74 %
03.10.2021 08:42 17,0 C 16,1 C 13,4 C 88 % 996,7 hPa 0,0 l/m 0 min 2 min 11 W/m 16,1 km/h (3 Bft) 93,62 %
03.10.2021 08:44 17,0 C 16,1 C 13,4 C 88 % 996,7 hPa 0,0 l/m 0 min 2 min 9 W/m 12,9 km/h (3 Bft) 95,65 %
03.10.2021 08:46 17,0 C 16,1 C 13,4 C 88 % 996,8 hPa 0,2 l/m 0 min 2 min 11 W/m 16,1 km/h (3 Bft) 95,74 %
03.10.2021 08:48 17,0 C 15,6 C 13,4 C 88 % 996,8 hPa 0,0 l/m 0 min 2 min 11 W/m 16,1 km/h (3 Bft) 95,74 %
03.10.2021 08:50 17,0 C 15,6 C 13,4 C 88 % 996,8 hPa 0,0 l/m 0 min 2 min 12 W/m 12,9 km/h (3 Bft) 95,74 %
03.10.2021 08:52 16,9 C 16,1 C 13,4 C 88 % 996,8 hPa 0,0 l/m 0 min 2 min 12 W/m 25,7 km/h (4 Bft) 93,62 %
03.10.2021 08:54 16,9 C 16,1 C 13,4 C 88 % 996,7 hPa 0,0 l/m 0 min 2 min 15 W/m 16,1 km/h (3 Bft) 95,74 %
03.10.2021 08:56 16,9 C 16,1 C 13,4 C 88 % 997,0 hPa 0,0 l/m 0 min 2 min 22 W/m 22,5 km/h (4 Bft) 93,75 %
03.10.2021 08:58 16,9 C 16,1 C 13,4 C 89 % 996,9 hPa 0,0 l/m 0 min 2 min 22 W/m 22,5 km/h (4 Bft) 95,74 %
03.10.2021 09:00 17,0 C 16,1 C 13,4 C 89 % 996,9 hPa 0,2 l/m 0 min 2 min 15 W/m 19,3 km/h (3 Bft) 97,87 %
03.10.2021 09:02 17,0 C 16,1 C 13,4 C 89 % 996,9 hPa 0,0 l/m 0 min 2 min 11 W/m 19,3 km/h (3 Bft) 95,74 %
03.10.2021 09:04 17,0 C 16,1 C 13,4 C 89 % 997,0 hPa 0,2 l/m 0 min 2 min 10 W/m 25,7 km/h (4 Bft) 97,87 %
03.10.2021 09:06 17,0 C 15,6 C 13,4 C 89 % 997,0 hPa 0,0 l/m 0 min 2 min 11 W/m 19,3 km/h (3 Bft) 97,87 %
03.10.2021 09:08 16,9 C 15,6 C 13,4 C 89 % 997,1 hPa 0,2 l/m 0 min 2 min 10 W/m 16,1 km/h (3 Bft) 97,83 %
03.10.2021 09:10 16,9 C 15,6 C 13,4 C 89 % 997,0 hPa 0,0 l/m 0 min 2 min 13 W/m 16,1 km/h (3 Bft) 100,00 %
03.10.2021 09:12 16,9 C 15,6 C 13,4 C 89 % 997,1 hPa 0,2 l/m 0 min 2 min 13 W/m 16,1 km/h (3 Bft) 100,00 %
03.10.2021 09:14 16,9 C 15,6 C 13,4 C 89 % 997,0 hPa 0,0 l/m 0 min 2 min 14 W/m 16,1 km/h (3 Bft) 100,00 %
03.10.2021 09:16 16,9 C 15,6 C 13,4 C 90 % 997,0 hPa 0,2 l/m 0 min 2 min 14 W/m 19,3 km/h (3 Bft) 100,00 %
03.10.2021 09:18 16,9 C 15,6 C 13,4 C 90 % 997,0 hPa 0,0 l/m 0 min 2 min 15 W/m 22,5 km/h (4 Bft) 100,00 %
03.10.2021 09:20 16,8 C 15,6 C 13,4 C 90 % 997,0 hPa 0,0 l/m 0 min 2 min 23 W/m 16,1 km/h (3 Bft) 100,00 %
03.10.2021 09:22 16,8 C 15,0 C 13,4 C 90 % 997,0 hPa 0,2 l/m 0 min 2 min 20 W/m 16,1 km/h (3 Bft) 100,00 %
03.10.2021 09:24 16,8 C 15,0 C 13,4 C 90 % 997,0 hPa 0,0 l/m 0 min 2 min 17 W/m 12,9 km/h (3 Bft) 100,00 %
03.10.2021 09:26 16,8 C 15,6 C 13,4 C 90 % 996,9 hPa 0,0 l/m 0 min 2 min 16 W/m 16,1 km/h (3 Bft) 97,87 %
03.10.2021 09:28 16,8 C 15,6 C 13,4 C 91 % 997,0 hPa 0,2 l/m 0 min 2 min 14 W/m 29,0 km/h (5 Bft) 100,00 %
03.10.2021 09:30 16,7 C 15,6 C 13,4 C 91 % 997,0 hPa 0,2 l/m 0 min 2 min 16 W/m 19,3 km/h (3 Bft) 97,83 %
03.10.2021 09:32 16,7 C 15,6 C 13,9 C 91 % 997,0 hPa 0,0 l/m 0 min 2 min 16 W/m 25,7 km/h (4 Bft) 100,00 %
03.10.2021 09:34 16,7 C 15,6 C 13,9 C 91 % 997,0 hPa 0,0 l/m 0 min 2 min 22 W/m 12,9 km/h (3 Bft) 100,00 %
03.10.2021 09:36 16,7 C 15,6 C 13,9 C 91 % 997,0 hPa 0,0 l/m 0 min 2 min 25 W/m 12,9 km/h (3 Bft) 100,00 %
03.10.2021 09:38 16,7 C 15,6 C 13,9 C 91 % 997,0 hPa 0,0 l/m 0 min 2 min 23 W/m 16,1 km/h (3 Bft) 100,00 %
03.10.2021 09:40 16,7 C 15,6 C 13,9 C 91 % 997,0 hPa 0,2 l/m 0 min 2 min 23 W/m 22,5 km/h (4 Bft) 100,00 %
03.10.2021 09:42 16,7 C 15,6 C 13,9 C 92 % 997,0 hPa 0,0 l/m 0 min 2 min 20 W/m 19,3 km/h (3 Bft) 100,00 %
03.10.2021 09:44 16,7 C 15,6 C 13,9 C 92 % 997,0 hPa 0,0 l/m 0 min 2 min 19 W/m 22,5 km/h (4 Bft) 100,00 %
03.10.2021 09:46 16,7 C 15,6 C 13,9 C 92 % 997,1 hPa 0,0 l/m 0 min 2 min 18 W/m 29,0 km/h (5 Bft) 100,00 %
03.10.2021 09:48 16,7 C 15,6 C 13,9 C 92 % 997,2 hPa 0,0 l/m 0 min 0 min 17 W/m 25,7 km/h (4 Bft) 100,00 %
03.10.2021 09:50 16,8 C 16,1 C 13,9 C 92 % 997,0 hPa 0,2 l/m 0 min 2 min 19 W/m 19,3 km/h (3 Bft) 100,00 %
03.10.2021 09:52 16,8 C 16,1 C 13,9 C 92 % 997,1 hPa 0,0 l/m 0 min 0 min 20 W/m 16,1 km/h (3 Bft) 100,00 %
03.10.2021 09:54 16,8 C 16,1 C 13,9 C 92 % 997,1 hPa 0,0 l/m 0 min 0 min 22 W/m 16,1 km/h (3 Bft) 100,00 %
03.10.2021 09:56 16,8 C 16,1 C 13,9 C 91 % 997,1 hPa 0,0 l/m 0 min 0 min 21 W/m 19,3 km/h (3 Bft) 100,00 %
03.10.2021 09:58 16,8 C 16,1 C 13,9 C 91 % 997,1 hPa 0,0 l/m 0 min 2 min 26 W/m 19,3 km/h (3 Bft) 100,00 %
03.10.2021 10:00 16,9 C 16,1 C 13,9 C 91 % 997,1 hPa 0,0 l/m 0 min 2 min 24 W/m 22,5 km/h (4 Bft) 97,87 %
03.10.2021 10:02 16,9 C 16,1 C 13,9 C 91 % 997,1 hPa 0,0 l/m 0 min 2 min 21 W/m 12,9 km/h (3 Bft) 100,00 %
03.10.2021 10:04 16,9 C 16,1 C 13,9 C 91 % 997,1 hPa 0,0 l/m 0 min 2 min 22 W/m 19,3 km/h (3 Bft) 100,00 %
03.10.2021 10:06 16,9 C 16,1 C 13,9 C 91 % 997,1 hPa 0,0 l/m 0 min 2 min 33 W/m 12,9 km/h (3 Bft) 100,00 %
03.10.2021 10:08 16,9 C 16,1 C 13,9 C 91 % 997,1 hPa 0,0 l/m 0 min 2 min 33 W/m 22,5 km/h (4 Bft) 97,87 %
03.10.2021 10:10 16,9 C 16,1 C 13,9 C 91 % 997,1 hPa 0,0 l/m 0 min 2 min 27 W/m 16,1 km/h (3 Bft) 100,00 %
03.10.2021 10:12 16,9 C 16,1 C 13,9 C 91 % 997,1 hPa 0,0 l/m 0 min 2 min 26 W/m 12,9 km/h (3 Bft) 100,00 %
03.10.2021 10:14 16,9 C 16,1 C 13,9 C 91 % 997,0 hPa 0,0 l/m 0 min 2 min 32 W/m 19,3 km/h (3 Bft) 95,92 %
03.10.2021 10:16 16,9 C 16,1 C 13,9 C 91 % 997,0 hPa 0,0 l/m 0 min 2 min 34 W/m 22,5 km/h (4 Bft) 100,00 %
03.10.2021 10:18 17,0 C 16,1 C 13,9 C 91 % 997,1 hPa 0,0 l/m 0 min 2 min 36 W/m 19,3 km/h (3 Bft) 100,00 %
03.10.2021 10:20 17,0 C 16,1 C 13,9 C 91 % 997,1 hPa 0,0 l/m 0 min 2 min 31 W/m 19,3 km/h (3 Bft) 97,87 %
03.10.2021 10:22 17,0 C 16,1 C 13,9 C 91 % 997,0 hPa 0,0 l/m 0 min 2 min 25 W/m 25,7 km/h (4 Bft) 97,87 %
03.10.2021 10:24 17,0 C 16,1 C 13,9 C 91 % 997,0 hPa 0,0 l/m 0 min 2 min 34 W/m 35,4 km/h (5 Bft) 95,74 %
03.10.2021 10:26 17,0 C 16,1 C 13,9 C 90 % 996,9 hPa 0,0 l/m 0 min 2 min 44 W/m 22,5 km/h (4 Bft) 95,74 %
03.10.2021 10:28 17,1 C 16,1 C 13,9 C 90 % 997,0 hPa 0,0 l/m 0 min 2 min 50 W/m 12,9 km/h (3 Bft) 95,65 %
03.10.2021 10:30 17,1 C 16,1 C 13,9 C 90 % 997,0 hPa 0,0 l/m 0 min 2 min 54 W/m 22,5 km/h (4 Bft) 91,67 %
03.10.2021 10:32 17,1 C 16,7 C 13,9 C 90 % 997,0 hPa 0,0 l/m 0 min 2 min 58 W/m 22,5 km/h (4 Bft) 93,48 %
03.10.2021 10:34 17,2 C 16,7 C 13,9 C 90 % 997,1 hPa 0,0 l/m 0 min 2 min 60 W/m 16,1 km/h (3 Bft) 95,74 %
03.10.2021 10:36 17,2 C 16,7 C 14,5 C 90 % 997,1 hPa 0,0 l/m 0 min 2 min 58 W/m 12,9 km/h (3 Bft) 96,61 %
03.10.2021 10:38 17,3 C 16,7 C 14,5 C 90 % 997,1 hPa 0,0 l/m 0 min 2 min 54 W/m 25,7 km/h (4 Bft) 94,29 %
03.10.2021 10:40 17,3 C 16,7 C 14,5 C 90 % 997,1 hPa 0,2 l/m 0 min 2 min 51 W/m 19,3 km/h (3 Bft) 95,74 %
03.10.2021 10:42 17,3 C 16,1 C 14,5 C 90 % 997,1 hPa 0,0 l/m 0 min 2 min 43 W/m 19,3 km/h (3 Bft) 94,34 %
03.10.2021 10:44 17,3 C 16,1 C 14,5 C 90 % 997,2 hPa 0,0 l/m 0 min 2 min 47 W/m 16,1 km/h (3 Bft) 95,74 %
03.10.2021 10:46 17,3 C 16,1 C 14,5 C 90 % 997,1 hPa 0,0 l/m 0 min 2 min 48 W/m 22,5 km/h (4 Bft) 93,62 %
03.10.2021 10:48 17,4 C 16,1 C 14,5 C 90 % 997,2 hPa 0,0 l/m 0 min 2 min 52 W/m 22,5 km/h (4 Bft) 95,74 %
03.10.2021 10:50 17,4 C 16,1 C 14,5 C 90 % 997,2 hPa 0,0 l/m 0 min 2 min 42 W/m 19,3 km/h (3 Bft) 93,62 %
03.10.2021 10:52 17,4 C 16,1 C 14,5 C 90 % 997,2 hPa 0,2 l/m 0 min 2 min 42 W/m 12,9 km/h (3 Bft) 95,74 %
03.10.2021 10:54 17,4 C 16,1 C 14,5 C 90 % 997,2 hPa 0,0 l/m 0 min 2 min 52 W/m 19,3 km/h (3 Bft) 97,83 %
03.10.2021 10:56 17,3 C 16,1 C 14,5 C 90 % 997,2 hPa 0,0 l/m 0 min 2 min 35 W/m 29,0 km/h (5 Bft) 97,87 %
03.10.2021 10:58 17,3 C 16,1 C 14,5 C 90 % 997,3 hPa 0,0 l/m 0 min 2 min 36 W/m 25,7 km/h (4 Bft) 93,62 %
03.10.2021 11:00 17,3 C 16,1 C 14,5 C 90 % 997,3 hPa 0,0 l/m 0 min 2 min 38 W/m 22,5 km/h (4 Bft) 93,62 %
03.10.2021 11:02 17,3 C 16,1 C 14,5 C 90 % 997,4 hPa 0,0 l/m 0 min 2 min 33 W/m 32,2 km/h (5 Bft) 96,00 %
03.10.2021 11:04 17,3 C 16,1 C 14,5 C 90 % 997,3 hPa 0,0 l/m 0 min 2 min 34 W/m 19,3 km/h (3 Bft) 97,83 %
03.10.2021 11:06 17,3 C 15,6 C 14,5 C 90 % 997,2 hPa 0,2 l/m 0 min 2 min 38 W/m 22,5 km/h (4 Bft) 95,74 %
03.10.2021 11:08 17,2 C 15,6 C 14,5 C 91 % 997,2 hPa 0,0 l/m 0 min 2 min 46 W/m 22,5 km/h (4 Bft) 95,74 %
03.10.2021 11:10 17,2 C 15,6 C 14,5 C 91 % 997,3 hPa 0,0 l/m 0 min 2 min 41 W/m 29,0 km/h (5 Bft) 95,74 %
03.10.2021 11:12 17,2 C 15,6 C 14,5 C 91 % 997,3 hPa 0,2 l/m 0 min 2 min 59 W/m 16,1 km/h (3 Bft) 93,62 %
03.10.2021 11:14 17,2 C 16,1 C 14,5 C 91 % 997,2 hPa 0,0 l/m 0 min 2 min 72 W/m 22,5 km/h (4 Bft) 95,74 %
03.10.2021 11:16 17,1 C 16,1 C 14,5 C 91 % 997,1 hPa 0,0 l/m 0 min 2 min 81 W/m 19,3 km/h (3 Bft) 97,92 %
03.10.2021 11:18 17,1 C 16,1 C 14,5 C 91 % 997,2 hPa 0,0 l/m 0 min 2 min 75 W/m 22,5 km/h (4 Bft) 97,87 %
03.10.2021 11:20 17,1 C 16,1 C 14,5 C 91 % 997,1 hPa 0,0 l/m 0 min 2 min 59 W/m 16,1 km/h (3 Bft) 95,74 %
03.10.2021 11:22 17,1 C 16,1 C 14,5 C 91 % 997,2 hPa 0,0 l/m 0 min 2 min 71 W/m 12,9 km/h (3 Bft) 97,87 %
03.10.2021 11:24 17,1 C 16,1 C 14,5 C 91 % 997,1 hPa 0,0 l/m 0 min 2 min 66 W/m 22,5 km/h (4 Bft) 97,87 %
03.10.2021 11:26 17,1 C 16,1 C 14,5 C 91 % 997,1 hPa 0,0 l/m 0 min 0 min 70 W/m 29,0 km/h (5 Bft) 95,74 %
03.10.2021 11:28 17,1 C 16,1 C 14,5 C 91 % 997,1 hPa 0,0 l/m 0 min 2 min 55 W/m 29,0 km/h (5 Bft) 97,83 %
03.10.2021 11:30 17,2 C 16,1 C 14,5 C 91 % 997,1 hPa 0,0 l/m 0 min 2 min 81 W/m 19,3 km/h (3 Bft) 95,74 %
03.10.2021 11:32 17,2 C 16,1 C 14,5 C 92 % 997,2 hPa 0,0 l/m 0 min 2 min 99 W/m 16,1 km/h (3 Bft) 97,87 %
03.10.2021 11:34 17,2 C 16,1 C 14,5 C 92 % 997,1 hPa 0,0 l/m 0 min 2 min 100 W/m 22,5 km/h (4 Bft) 95,74 %
03.10.2021 11:36 17,3 C 16,7 C 14,5 C 92 % 997,1 hPa 0,0 l/m 0 min 2 min 91 W/m 22,5 km/h (4 Bft) 97,87 %
03.10.2021 11:38 17,3 C 16,7 C 14,5 C 92 % 997,2 hPa 0,0 l/m 0 min 2 min 100 W/m 22,5 km/h (4 Bft) 97,87 %
03.10.2021 11:40 17,3 C 16,7 C 15,0 C 92 % 997,1 hPa 0,0 l/m 0 min 2 min 113 W/m 16,1 km/h (3 Bft) 97,83 %
03.10.2021 11:42 17,4 C 16,7 C 15,0 C 92 % 997,2 hPa 0,0 l/m 0 min 2 min 86 W/m 16,1 km/h (3 Bft) 97,87 %
03.10.2021 11:44 17,4 C 16,7 C 15,0 C 92 % 997,2 hPa 0,0 l/m 0 min 2 min 79 W/m 19,3 km/h (3 Bft) 97,87 %
03.10.2021 11:46 17,4 C 16,7 C 14,5 C 92 % 997,3 hPa 0,0 l/m 0 min 2 min 55 W/m 25,7 km/h (4 Bft) 100,00 %
03.10.2021 11:48 17,4 C 16,7 C 15,0 C 91 % 997,3 hPa 0,0 l/m 0 min 2 min 62 W/m 19,3 km/h (3 Bft) 100,00 %
03.10.2021 11:50 17,4 C 16,7 C 15,0 C 91 % 997,3 hPa 0,0 l/m 0 min 2 min 89 W/m 22,5 km/h (4 Bft) 100,00 %
03.10.2021 11:52 17,5 C 16,7 C 15,0 C 91 % 997,2 hPa 0,0 l/m 0 min 2 min 85 W/m 22,5 km/h (4 Bft) 97,87 %
03.10.2021 11:54 17,5 C 16,7 C 15,0 C 91 % 997,3 hPa 0,0 l/m 0 min 2 min 97 W/m 29,0 km/h (5 Bft) 100,00 %
03.10.2021 11:56 17,5 C 16,7 C 15,0 C 91 % 997,3 hPa 0,0 l/m 0 min 2 min 83 W/m 25,7 km/h (4 Bft) 100,00 %
03.10.2021 11:58 17,5 C 16,7 C 15,0 C 91 % 997,3 hPa 0,0 l/m 0 min 2 min 113 W/m 22,5 km/h (4 Bft) 100,00 %
03.10.2021 12:00 17,6 C 16,7 C 15,0 C 91 % 997,2 hPa 0,0 l/m 0 min 2 min 105 W/m 29,0 km/h (5 Bft) 100,00 %
03.10.2021 12:02 17,6 C 16,7 C 15,0 C 91 % 997,3 hPa 0,2 l/m 0 min 2 min 72 W/m 19,3 km/h (3 Bft) 100,00 %
03.10.2021 12:04 17,6 C 16,7 C 15,0 C 91 % 997,3 hPa 0,0 l/m 0 min 2 min 72 W/m 22,5 km/h (4 Bft) 100,00 %
03.10.2021 12:07 17,7 C 16,7 C 15,0 C 90 % 997,3 hPa 0,0 l/m 0 min 3 min 76 W/m 19,3 km/h (3 Bft) 98,57 %
03.10.2021 12:08 17,8 C 16,7 C 15,0 C 90 % 997,3 hPa 0,0 l/m 0 min 1 min 81 W/m 12,9 km/h (3 Bft) 100,00 %
03.10.2021 12:10 17,8 C 17,2 C 15,0 C 90 % 997,3 hPa 0,0 l/m 0 min 2 min 90 W/m 19,3 km/h (3 Bft) 100,00 %
03.10.2021 12:12 17,8 C 17,2 C 15,0 C 90 % 997,4 hPa 0,0 l/m 0 min 2 min 85 W/m 19,3 km/h (3 Bft) 100,00 %
03.10.2021 12:14 17,9 C 17,2 C 15,0 C 90 % 997,3 hPa 0,0 l/m 0 min 2 min 76 W/m 22,5 km/h (4 Bft) 100,00 %
03.10.2021 12:16 17,9 C 16,7 C 15,0 C 90 % 997,3 hPa 0,0 l/m 0 min 2 min 67 W/m 25,7 km/h (4 Bft) 100,00 %
03.10.2021 12:18 17,9 C 16,7 C 15,0 C 90 % 997,3 hPa 0,0 l/m 0 min 2 min 61 W/m 12,9 km/h (3 Bft) 96,30 %
03.10.2021 12:20 17,9 C 16,7 C 15,0 C 90 % 997,3 hPa 0,0 l/m 0 min 2 min 66 W/m 22,5 km/h (4 Bft) 97,87 %
03.10.2021 12:22 17,9 C 16,7 C 15,0 C 90 % 997,3 hPa 0,0 l/m 0 min 2 min 65 W/m 16,1 km/h (3 Bft) 97,87 %
03.10.2021 12:24 17,9 C 16,7 C 15,0 C 90 % 997,4 hPa 0,0 l/m 0 min 2 min 61 W/m 16,1 km/h (3 Bft) 97,87 %
03.10.2021 12:26 17,9 C 17,2 C 15,0 C 90 % 997,5 hPa 0,0 l/m 0 min 2 min 60 W/m 22,5 km/h (4 Bft) 97,83 %
03.10.2021 12:28 17,9 C 16,7 C 15,0 C 90 % 997,4 hPa 0,0 l/m 0 min 2 min 67 W/m 19,3 km/h (3 Bft) 97,87 %
03.10.2021 12:30 17,9 C 16,7 C 15,0 C 90 % 997,4 hPa 0,0 l/m 0 min 2 min 63 W/m 9,7 km/h (2 Bft) 95,74 %
03.10.2021 12:32 18,0 C 16,7 C 15,0 C 90 % 997,4 hPa 0,0 l/m 0 min 2 min 65 W/m 12,9 km/h (3 Bft) 97,87 %
03.10.2021 12:34 17,9 C 16,7 C 15,0 C 90 % 997,4 hPa 0,0 l/m 0 min 2 min 72 W/m 19,3 km/h (3 Bft) 97,87 %
03.10.2021 12:36 17,9 C 16,7 C 15,0 C 90 % 997,5 hPa 0,0 l/m 0 min 2 min 67 W/m 16,1 km/h (3 Bft) 97,87 %
03.10.2021 12:38 18,0 C 16,7 C 15,0 C 90 % 997,5 hPa 0,0 l/m 0 min 2 min 43 W/m 12,9 km/h (3 Bft) 97,96 %
03.10.2021 12:40 18,0 C 16,7 C 15,0 C 90 % 997,6 hPa 0,0 l/m 0 min 2 min 32 W/m 12,9 km/h (3 Bft) 95,74 %
03.10.2021 12:42 18,0 C 16,7 C 15,0 C 90 % 997,6 hPa 0,0 l/m 0 min 2 min 32 W/m 6,4 km/h (2 Bft) 97,87 %
03.10.2021 12:44 18,0 C 16,7 C 15,0 C 90 % 997,6 hPa 0,2 l/m 0 min 2 min 38 W/m 12,9 km/h (3 Bft) 97,87 %
03.10.2021 12:46 18,0 C 16,7 C 15,0 C 90 % 997,6 hPa 0,0 l/m 0 min 2 min 39 W/m 16,1 km/h (3 Bft) 97,87 %
03.10.2021 12:48 18,0 C 16,7 C 15,0 C 90 % 997,6 hPa 0,0 l/m 0 min 0 min 50 W/m 16,1 km/h (3 Bft) 97,87 %
03.10.2021 12:50 18,0 C 16,7 C 15,0 C 90 % 997,5 hPa 0,0 l/m 0 min 0 min 64 W/m 12,9 km/h (3 Bft) 100,00 %
03.10.2021 12:52 18,0 C 17,2 C 15,0 C 90 % 997,5 hPa 0,0 l/m 0 min 0 min 53 W/m 12,9 km/h (3 Bft) 100,00 %
03.10.2021 12:54 18,0 C 17,2 C 15,0 C 90 % 997,6 hPa 0,0 l/m 0 min 0 min 45 W/m 16,1 km/h (3 Bft) 100,00 %
03.10.2021 12:56 18,0 C 17,2 C 15,0 C 90 % 997,6 hPa 0,0 l/m 0 min 0 min 34 W/m 12,9 km/h (3 Bft) 100,00 %
03.10.2021 12:58 18,0 C 17,2 C 15,0 C 90 % 997,7 hPa 0,0 l/m 0 min 0 min 38 W/m 25,7 km/h (4 Bft) 97,87 %
03.10.2021 13:00 18,1 C 17,2 C 15,0 C 90 % 997,7 hPa 0,0 l/m 0 min 0 min 45 W/m 19,3 km/h (3 Bft) 97,83 %
03.10.2021 13:02 18,1 C 17,2 C 15,0 C 90 % 997,7 hPa 0,0 l/m 0 min 0 min 55 W/m 19,3 km/h (3 Bft) 100,00 %
03.10.2021 13:04 18,2 C 17,8 C 15,0 C 89 % 997,7 hPa 0,0 l/m 0 min 0 min 52 W/m 16,1 km/h (3 Bft) 100,00 %
03.10.2021 13:06 18,3 C 17,8 C 15,6 C 89 % 997,7 hPa 0,0 l/m 0 min 0 min 64 W/m 16,1 km/h (3 Bft) 100,00 %
03.10.2021 13:08 18,3 C 17,8 C 15,6 C 89 % 997,7 hPa 0,0 l/m 0 min 0 min 64 W/m 22,5 km/h (4 Bft) 100,00 %
03.10.2021 13:10 18,4 C 17,8 C 15,6 C 89 % 997,7 hPa 0,0 l/m 0 min 0 min 75 W/m 29,0 km/h (5 Bft) 100,00 %
03.10.2021 13:12 18,4 C 17,8 C 15,6 C 88 % 997,6 hPa 0,0 l/m 0 min 0 min 60 W/m 19,3 km/h (3 Bft) 100,00 %
03.10.2021 13:14 18,5 C 17,8 C 15,6 C 88 % 997,8 hPa 0,0 l/m 0 min 0 min 42 W/m 32,2 km/h (5 Bft) 100,00 %
03.10.2021 13:16 18,5 C 17,8 C 15,6 C 87 % 997,9 hPa 0,0 l/m 0 min 0 min 45 W/m 29,0 km/h (5 Bft) 100,00 %
03.10.2021 13:18 18,6 C 18,3 C 15,6 C 87 % 997,9 hPa 0,0 l/m 0 min 0 min 60 W/m 16,1 km/h (3 Bft) 100,00 %
03.10.2021 13:20 18,7 C 18,3 C 15,6 C 87 % 997,9 hPa 0,0 l/m 0 min 0 min 72 W/m 32,2 km/h (5 Bft) 100,00 %
03.10.2021 13:22 18,8 C 18,3 C 15,6 C 86 % 997,8 hPa 0,0 l/m 0 min 0 min 72 W/m 32,2 km/h (5 Bft) 97,87 %
03.10.2021 13:24 18,8 C 18,3 C 15,6 C 86 % 997,9 hPa 0,0 l/m 0 min 0 min 83 W/m 32,2 km/h (5 Bft) 97,83 %
03.10.2021 13:26 18,9 C 18,3 C 15,6 C 85 % 997,9 hPa 0,0 l/m 0 min 0 min 71 W/m 22,5 km/h (4 Bft) 96,00 %
03.10.2021 13:28 19,0 C 18,3 C 15,6 C 85 % 998,0 hPa 0,0 l/m 0 min 0 min 59 W/m 32,2 km/h (5 Bft) 97,92 %
03.10.2021 13:30 19,0 C 18,3 C 15,6 C 85 % 998,0 hPa 0,0 l/m 0 min 0 min 63 W/m 29,0 km/h (5 Bft) 97,87 %
03.10.2021 13:32 19,0 C 18,3 C 15,6 C 85 % 997,9 hPa 0,0 l/m 0 min 0 min 94 W/m 22,5 km/h (4 Bft) 95,74 %
03.10.2021 13:34 19,1 C 18,3 C 15,6 C 85 % 997,9 hPa 0,0 l/m 0 min 0 min 89 W/m 29,0 km/h (5 Bft) 97,87 %
03.10.2021 13:36 19,1 C 18,3 C 15,6 C 84 % 998,0 hPa 0,0 l/m 0 min 0 min 92 W/m 35,4 km/h (5 Bft) 95,65 %
03.10.2021 13:38 19,1 C 18,3 C 15,6 C 84 % 998,1 hPa 0,0 l/m 0 min 0 min 83 W/m 19,3 km/h (3 Bft) 95,74 %
03.10.2021 13:40 19,2 C 18,3 C 15,6 C 84 % 998,0 hPa 0,0 l/m 0 min 0 min 78 W/m 45,1 km/h (6 Bft) 95,74 %
03.10.2021 13:42 19,2 C 18,9 C 15,6 C 84 % 998,0 hPa 0,0 l/m 0 min 0 min 83 W/m 38,6 km/h (5 Bft) 91,43 %
03.10.2021 13:44 19,3 C 18,9 C 15,6 C 83 % 998,2 hPa 0,0 l/m 0 min 0 min 83 W/m 35,4 km/h (5 Bft) 93,62 %
03.10.2021 13:46 19,4 C 18,9 C 15,6 C 83 % 998,0 hPa 0,0 l/m 0 min 0 min 84 W/m 35,4 km/h (5 Bft) 94,55 %
03.10.2021 13:48 19,4 C 18,9 C 15,6 C 83 % 998,0 hPa 0,0 l/m 0 min 0 min 81 W/m 35,4 km/h (5 Bft) 95,74 %
03.10.2021 13:50 19,4 C 18,9 C 15,6 C 83 % 998,1 hPa 0,0 l/m 0 min 0 min 71 W/m 41,8 km/h (6 Bft) 95,65 %
03.10.2021 13:52 19,4 C 18,9 C 15,6 C 83 % 998,0 hPa 0,0 l/m 0 min 0 min 63 W/m 19,3 km/h (3 Bft) 93,62 %
03.10.2021 13:54 19,4 C 18,9 C 15,6 C 83 % 998,1 hPa 0,0 l/m 0 min 0 min 62 W/m 19,3 km/h (3 Bft) 95,74 %
03.10.2021 13:56 19,4 C 18,3 C 15,6 C 83 % 998,0 hPa 0,0 l/m 0 min 0 min 62 W/m 38,6 km/h (5 Bft) 95,74 %
03.10.2021 13:58 19,4 C 18,3 C 15,6 C 83 % 998,1 hPa 0,0 l/m 0 min 0 min 62 W/m 16,1 km/h (3 Bft) 95,74 %
03.10.2021 14:00 19,4 C 18,3 C 15,6 C 83 % 998,1 hPa 0,0 l/m 0 min 0 min 65 W/m 19,3 km/h (3 Bft) 95,92 %
03.10.2021 14:02 19,4 C 18,9 C 15,6 C 83 % 998,1 hPa 0,0 l/m 0 min 0 min 61 W/m 32,2 km/h (5 Bft) 93,62 %
03.10.2021 14:04 19,4 C 18,9 C 15,6 C 83 % 998,1 hPa 0,0 l/m 0 min 0 min 58 W/m 22,5 km/h (4 Bft) 95,74 %
03.10.2021 14:06 19,4 C 18,9 C 15,6 C 83 % 998,0 hPa 0,0 l/m 0 min 0 min 61 W/m 22,5 km/h (4 Bft) 95,74 %
03.10.2021 14:08 19,4 C 18,9 C 15,6 C 83 % 998,1 hPa 0,0 l/m 0 min 0 min 60 W/m 19,3 km/h (3 Bft) 93,62 %
03.10.2021 14:10 19,4 C 18,9 C 15,6 C 83 % 998,1 hPa 0,0 l/m 0 min 0 min 58 W/m 19,3 km/h (3 Bft) 95,65 %
03.10.2021 14:12 19,4 C 18,9 C 15,6 C 83 % 998,2 hPa 0,0 l/m 0 min 0 min 60 W/m 22,5 km/h (4 Bft) 97,87 %
03.10.2021 14:14 19,4 C 18,9 C 15,6 C 83 % 998,2 hPa 0,0 l/m 0 min 0 min 61 W/m 29,0 km/h (5 Bft) 93,75 %
03.10.2021 14:16 19,4 C 18,9 C 15,6 C 82 % 998,3 hPa 0,0 l/m 0 min 0 min 65 W/m 16,1 km/h (3 Bft) 95,74 %
03.10.2021 14:18 19,5 C 18,9 C 15,6 C 82 % 998,3 hPa 0,0 l/m 0 min 0 min 71 W/m 29,0 km/h (5 Bft) 95,74 %
03.10.2021 14:20 19,5 C 18,9 C 15,6 C 82 % 998,3 hPa 0,0 l/m 0 min 0 min 74 W/m 45,1 km/h (6 Bft) 93,62 %
03.10.2021 14:22 19,5 C 18,9 C 15,6 C 82 % 998,3 hPa 0,0 l/m 0 min 0 min 81 W/m 25,7 km/h (4 Bft) 95,65 %
03.10.2021 14:24 19,5 C 18,9 C 15,6 C 82 % 998,3 hPa 0,0 l/m 0 min 0 min 86 W/m 29,0 km/h (5 Bft) 97,87 %
03.10.2021 14:26 19,6 C 18,9 C 16,1 C 82 % 998,3 hPa 0,0 l/m 0 min 0 min 93 W/m 25,7 km/h (4 Bft) 97,87 %
03.10.2021 14:28 19,6 C 18,9 C 16,7 C 82 % 998,3 hPa 0,0 l/m 0 min 0 min 108 W/m 35,4 km/h (5 Bft) 97,87 %
03.10.2021 14:30 19,6 C 18,9 C 16,7 C 81 % 998,3 hPa 0,0 l/m 0 min 0 min 125 W/m 25,7 km/h (4 Bft) 97,87 %
03.10.2021 14:32 19,6 C 18,9 C 16,7 C 81 % 998,4 hPa 0,0 l/m 0 min 0 min 134 W/m 25,7 km/h (4 Bft) 97,87 %
03.10.2021 14:34 19,7 C 18,9 C 16,7 C 81 % 998,4 hPa 0,0 l/m 0 min 0 min 142 W/m 41,8 km/h (6 Bft) 97,14 %
03.10.2021 14:36 19,7 C 18,9 C 16,7 C 81 % 998,3 hPa 0,0 l/m 0 min 0 min 147 W/m 25,7 km/h (4 Bft) 97,83 %
03.10.2021 14:38 19,8 C 19,4 C 16,7 C 81 % 998,3 hPa 0,0 l/m 0 min 0 min 143 W/m 19,3 km/h (3 Bft) 97,87 %
03.10.2021 14:40 19,8 C 19,4 C 17,3 C 81 % 998,4 hPa 0,0 l/m 0 min 0 min 132 W/m 29,0 km/h (5 Bft) 97,87 %
03.10.2021 14:42 19,8 C 19,4 C 17,3 C 81 % 998,5 hPa 0,0 l/m 0 min 0 min 124 W/m 19,3 km/h (3 Bft) 97,87 %
03.10.2021 14:44 19,9 C 19,4 C 17,3 C 81 % 998,6 hPa 0,0 l/m 0 min 0 min 126 W/m 19,3 km/h (3 Bft) 97,87 %
03.10.2021 14:46 19,9 C 19,4 C 17,3 C 80 % 998,6 hPa 0,0 l/m 0 min 0 min 134 W/m 29,0 km/h (5 Bft) 95,74 %
03.10.2021 14:48 19,9 C 19,4 C 17,3 C 80 % 998,7 hPa 0,0 l/m 0 min 2 min 154 W/m 29,0 km/h (5 Bft) 100,00 %
03.10.2021 14:50 19,9 C 19,4 C 16,7 C 81 % 998,7 hPa 0,0 l/m 0 min 0 min 158 W/m 32,2 km/h (5 Bft) 100,00 %
03.10.2021 14:52 20,0 C 19,4 C 16,7 C 81 % 998,7 hPa 0,0 l/m 0 min 2 min 146 W/m 32,2 km/h (5 Bft) 100,00 %
03.10.2021 14:54 20,0 C 18,9 C 16,7 C 81 % 998,8 hPa 0,0 l/m 0 min 2 min 128 W/m 32,2 km/h (5 Bft) 100,00 %
03.10.2021 14:56 20,0 C 18,9 C 16,7 C 81 % 999,0 hPa 0,0 l/m 0 min 2 min 129 W/m 25,7 km/h (4 Bft) 97,83 %
03.10.2021 14:58 19,9 C 19,4 C 16,7 C 81 % 998,8 hPa 0,0 l/m 0 min 0 min 151 W/m 38,6 km/h (5 Bft) 100,00 %
03.10.2021 15:00 19,9 C 19,4 C 16,7 C 81 % 998,8 hPa 0,0 l/m 0 min 2 min 157 W/m 32,2 km/h (5 Bft) 100,00 %
03.10.2021 15:02 19,9 C 19,4 C 16,7 C 81 % 998,8 hPa 0,0 l/m 0 min 2 min 153 W/m 35,4 km/h (5 Bft) 100,00 %
03.10.2021 15:04 19,9 C 18,9 C 16,1 C 81 % 999,0 hPa 0,0 l/m 0 min 2 min 147 W/m 29,0 km/h (5 Bft) 100,00 %
03.10.2021 15:06 19,9 C 18,9 C 16,1 C 81 % 999,0 hPa 0,0 l/m 0 min 2 min 137 W/m 51,5 km/h (7 Bft) 100,00 %
03.10.2021 15:08 19,9 C 18,9 C 16,1 C 80 % 998,9 hPa 0,0 l/m 0 min 2 min 133 W/m 45,1 km/h (6 Bft) 100,00 %
03.10.2021 15:10 19,8 C 18,9 C 16,1 C 81 % 999,0 hPa 0,0 l/m 0 min 2 min 144 W/m 25,7 km/h (4 Bft) 100,00 %
03.10.2021 15:12 19,8 C 18,9 C 16,1 C 81 % 999,0 hPa 0,0 l/m 0 min 2 min 133 W/m 32,2 km/h (5 Bft) 100,00 %
03.10.2021 15:14 19,8 C 18,9 C 16,1 C 81 % 999,0 hPa 0,0 l/m 0 min 2 min 123 W/m 35,4 km/h (5 Bft) 100,00 %
03.10.2021 15:16 19,7 C 18,9 C 16,1 C 81 % 999,0 hPa 0,0 l/m 0 min 2 min 110 W/m 32,2 km/h (5 Bft) 100,00 %
03.10.2021 15:18 19,6 C 18,9 C 16,1 C 82 % 999,0 hPa 0,0 l/m 0 min 2 min 112 W/m 38,6 km/h (5 Bft) 100,00 %
03.10.2021 15:20 19,6 C 18,9 C 16,1 C 82 % 999,1 hPa 0,0 l/m 0 min 0 min 108 W/m 35,4 km/h (5 Bft) 100,00 %
03.10.2021 15:22 19,5 C 18,9 C 16,1 C 82 % 999,1 hPa 0,0 l/m 0 min 0 min 103 W/m 32,2 km/h (5 Bft) 100,00 %
03.10.2021 15:24 19,5 C 18,9 C 16,1 C 82 % 999,0 hPa 0,0 l/m 0 min 0 min 112 W/m 25,7 km/h (4 Bft) 97,83 %
03.10.2021 15:26 19,5 C 18,9 C 16,1 C 82 % 999,0 hPa 0,0 l/m 0 min 0 min 113 W/m 19,3 km/h (3 Bft) 100,00 %
03.10.2021 15:28 19,5 C 18,9 C 16,7 C 82 % 999,2 hPa 0,0 l/m 0 min 0 min 107 W/m 19,3 km/h (3 Bft) 100,00 %
03.10.2021 15:30 19,4 C 18,9 C 16,7 C 82 % 999,3 hPa 0,0 l/m 0 min 0 min 96 W/m 29,0 km/h (5 Bft) 100,00 %
03.10.2021 15:32 19,4 C 18,9 C 16,7 C 82 % 999,4 hPa 0,0 l/m 0 min 0 min 74 W/m 35,4 km/h (5 Bft) 100,00 %
03.10.2021 15:34 19,4 C 18,9 C 16,7 C 82 % 999,4 hPa 0,0 l/m 0 min 0 min 67 W/m 25,7 km/h (4 Bft) 100,00 %
03.10.2021 15:36 19,4 C 18,9 C 16,7 C 82 % 999,5 hPa 0,0 l/m 0 min 0 min 87 W/m 32,2 km/h (5 Bft) 100,00 %
03.10.2021 15:38 19,4 C 18,9 C 16,7 C 82 % 999,5 hPa 0,0 l/m 0 min 0 min 101 W/m 16,1 km/h (3 Bft) 100,00 %
03.10.2021 15:40 19,4 C 18,9 C 16,7 C 82 % 999,4 hPa 0,0 l/m 0 min 0 min 116 W/m 32,2 km/h (5 Bft) 100,00 %
03.10.2021 15:42 19,4 C 18,9 C 16,7 C 82 % 999,5 hPa 0,0 l/m 0 min 2 min 138 W/m 29,0 km/h (5 Bft) 100,00 %
03.10.2021 15:44 19,4 C 18,9 C 16,7 C 82 % 999,6 hPa 0,0 l/m 0 min 2 min 149 W/m 29,0 km/h (5 Bft) 100,00 %
03.10.2021 15:46 19,4 C 18,9 C 16,7 C 82 % 999,6 hPa 0,0 l/m 0 min 2 min 150 W/m 22,5 km/h (4 Bft) 97,83 %
03.10.2021 15:48 19,4 C 18,9 C 16,7 C 82 % 999,6 hPa 0,0 l/m 0 min 2 min 144 W/m 32,2 km/h (5 Bft) 100,00 %
03.10.2021 15:50 19,4 C 18,9 C 16,7 C 82 % 999,6 hPa 0,0 l/m 0 min 2 min 129 W/m 29,0 km/h (5 Bft) 100,00 %
03.10.2021 15:52 19,4 C 18,9 C 16,7 C 81 % 999,5 hPa 0,0 l/m 0 min 2 min 113 W/m 54,7 km/h (7 Bft) 100,00 %
03.10.2021 15:54 19,5 C 18,9 C 16,7 C 81 % 999,5 hPa 0,0 l/m 0 min 0 min 91 W/m 38,6 km/h (5 Bft) 100,00 %
03.10.2021 15:56 19,4 C 18,9 C 16,7 C 81 % 999,5 hPa 0,0 l/m 0 min 0 min 73 W/m 22,5 km/h (4 Bft) 95,74 %
03.10.2021 15:58 19,4 C 18,9 C 16,7 C 81 % 999,5 hPa 0,0 l/m 0 min 0 min 84 W/m 25,7 km/h (4 Bft) 100,00 %
03.10.2021 16:00 19,4 C 18,9 C 16,7 C 81 % 999,4 hPa 0,0 l/m 0 min 0 min 101 W/m 22,5 km/h (4 Bft) 97,87 %
03.10.2021 16:02 19,4 C 18,9 C 17,3 C 81 % 999,4 hPa 0,0 l/m 0 min 0 min 127 W/m 19,3 km/h (3 Bft) 100,00 %
03.10.2021 16:04 19,4 C 18,9 C 17,3 C 81 % 999,5 hPa 0,0 l/m 0 min 0 min 112 W/m 25,7 km/h (4 Bft) 100,00 %
03.10.2021 16:06 19,4 C 18,9 C 17,3 C 81 % 999,6 hPa 0,0 l/m 0 min 0 min 80 W/m 25,7 km/h (4 Bft) 100,00 %
03.10.2021 16:08 19,4 C 18,9 C 17,3 C 81 % 999,6 hPa 0,0 l/m 0 min 0 min 72 W/m 25,7 km/h (4 Bft) 97,87 %
03.10.2021 16:10 19,4 C 18,9 C 16,7 C 81 % 999,7 hPa 0,0 l/m 0 min 0 min 56 W/m 25,7 km/h (4 Bft) 97,83 %
03.10.2021 16:12 19,4 C 18,9 C 16,7 C 81 % 999,8 hPa 0,0 l/m 0 min 0 min 64 W/m 16,1 km/h (3 Bft) 95,74 %
03.10.2021 16:14 19,4 C 18,9 C 16,7 C 82 % 999,8 hPa 0,0 l/m 0 min 0 min 69 W/m 32,2 km/h (5 Bft) 94,55 %
03.10.2021 16:16 19,4 C 18,9 C 16,7 C 82 % 999,8 hPa 0,0 l/m 0 min 0 min 57 W/m 16,1 km/h (3 Bft) 93,62 %
03.10.2021 16:18 19,4 C 18,9 C 16,7 C 81 % 999,9 hPa 0,0 l/m 0 min 0 min 43 W/m 25,7 km/h (4 Bft) 95,74 %
03.10.2021 16:20 19,4 C 18,9 C 16,7 C 82 % 1000,0 hPa 0,0 l/m 0 min 0 min 52 W/m 25,7 km/h (4 Bft) 97,83 %
03.10.2021 16:22 19,4 C 18,3 C 16,7 C 81 % 999,9 hPa 0,0 l/m 0 min 0 min 45 W/m 25,7 km/h (4 Bft) 93,62 %
03.10.2021 16:24 19,4 C 18,3 C 16,7 C 81 % 1000,0 hPa 0,0 l/m 0 min 0 min 46 W/m 32,2 km/h (5 Bft) 95,74 %
03.10.2021 16:26 19,4 C 18,3 C 16,7 C 81 % 1000,2 hPa 0,0 l/m 0 min 0 min 49 W/m 35,4 km/h (5 Bft) 95,74 %
03.10.2021 16:28 19,4 C 18,9 C 16,7 C 81 % 1000,2 hPa 0,0 l/m 0 min 0 min 64 W/m 35,4 km/h (5 Bft) 93,62 %
03.10.2021 16:30 19,4 C 18,9 C 16,7 C 81 % 1000,2 hPa 0,0 l/m 0 min 0 min 80 W/m 29,0 km/h (5 Bft) 91,30 %
03.10.2021 16:32 19,4 C 18,9 C 16,7 C 81 % 1000,2 hPa 0,0 l/m 0 min 0 min 92 W/m 25,7 km/h (4 Bft) 92,00 %
03.10.2021 16:34 19,4 C 18,9 C 16,7 C 81 % 1000,1 hPa 0,0 l/m 0 min 0 min 71 W/m 16,1 km/h (3 Bft) 93,62 %
03.10.2021 16:36 19,3 C 18,3 C 16,7 C 81 % 1000,4 hPa 0,0 l/m 0 min 2 min 39 W/m 22,5 km/h (4 Bft) 93,62 %
03.10.2021 16:38 19,3 C 17,8 C 15,6 C 82 % 1000,5 hPa 0,0 l/m 0 min 2 min 28 W/m 19,3 km/h (3 Bft) 91,49 %
03.10.2021 16:40 19,1 C 17,8 C 15,0 C 83 % 1000,5 hPa 0,0 l/m 0 min 2 min 36 W/m 45,1 km/h (6 Bft) 93,62 %
03.10.2021 16:42 19,0 C 17,2 C 15,0 C 84 % 1000,5 hPa 0,0 l/m 0 min 2 min 41 W/m 38,6 km/h (5 Bft) 93,62 %
03.10.2021 16:44 18,9 C 17,2 C 15,0 C 84 % 1000,5 hPa 0,0 l/m 0 min 0 min 45 W/m 12,9 km/h (3 Bft) 91,49 %
03.10.2021 16:46 18,8 C 17,2 C 15,0 C 85 % 1000,6 hPa 0,0 l/m 0 min 0 min 34 W/m 35,4 km/h (5 Bft) 95,74 %
03.10.2021 16:48 18,6 C 17,2 C 15,0 C 84 % 1001,0 hPa 0,0 l/m 0 min 0 min 17 W/m 32,2 km/h (5 Bft) 93,62 %
03.10.2021 16:50 18,5 C 16,7 C 14,5 C 85 % 1001,6 hPa 0,2 l/m 0 min 2 min 12 W/m 19,3 km/h (3 Bft) 95,74 %
03.10.2021 16:52 18,0 C 15,0 C 13,9 C 86 % 1001,9 hPa 1,4 l/m 0 min 2 min 20 W/m 22,5 km/h (4 Bft) 93,48 %
03.10.2021 16:54 17,4 C 14,4 C 13,9 C 87 % 1001,9 hPa 0,8 l/m 0 min 2 min 20 W/m 16,1 km/h (3 Bft) 97,87 %
03.10.2021 16:56 16,9 C 13,9 C 13,4 C 88 % 1002,2 hPa 0,0 l/m 0 min 2 min 18 W/m 29,0 km/h (5 Bft) 97,87 %
03.10.2021 16:58 16,1 C 13,3 C 12,8 C 88 % 1002,3 hPa 0,0 l/m 0 min 2 min 25 W/m 25,7 km/h (4 Bft) 95,74 %
03.10.2021 17:00 15,6 C 12,8 C 12,3 C 88 % 1002,3 hPa 0,0 l/m 0 min 0 min 34 W/m 22,5 km/h (4 Bft) 95,74 %
03.10.2021 17:02 15,1 C 12,8 C 12,3 C 89 % 1002,6 hPa 0,0 l/m 0 min 2 min 30 W/m 19,3 km/h (3 Bft) 97,87 %
03.10.2021 17:04 14,9 C 12,8 C 12,3 C 90 % 1002,6 hPa 0,0 l/m 0 min 2 min 22 W/m 25,7 km/h (4 Bft) 95,65 %
03.10.2021 17:06 14,6 C 12,8 C 12,3 C 91 % 1002,9 hPa 0,0 l/m 0 min 2 min 24 W/m 22,5 km/h (4 Bft) 97,87 %
03.10.2021 17:08 14,3 C 12,8 C 12,3 C 91 % 1003,0 hPa 0,0 l/m 0 min 0 min 24 W/m 16,1 km/h (3 Bft) 97,87 %
03.10.2021 17:10 14,2 C 12,8 C 11,7 C 92 % 1003,4 hPa 0,2 l/m 0 min 2 min 20 W/m 22,5 km/h (4 Bft) 97,87 %
03.10.2021 17:12 14,0 C 12,8 C 11,7 C 92 % 1003,4 hPa 0,0 l/m 0 min 2 min 26 W/m 19,3 km/h (3 Bft) 97,87 %
03.10.2021 17:14 13,9 C 12,8 C 11,7 C 92 % 1003,4 hPa 0,0 l/m 0 min 2 min 35 W/m 16,1 km/h (3 Bft) 97,87 %
03.10.2021 17:16 13,9 C 12,8 C 11,7 C 93 % 1003,5 hPa 0,0 l/m 0 min 2 min 38 W/m 12,9 km/h (3 Bft) 93,48 %
03.10.2021 17:18 13,8 C 12,8 C 11,7 C 93 % 1003,6 hPa 0,2 l/m 0 min 2 min 39 W/m 19,3 km/h (3 Bft) 97,87 %
03.10.2021 17:20 13,8 C 12,8 C 11,7 C 93 % 1003,6 hPa 0,0 l/m 0 min 2 min 36 W/m 12,9 km/h (3 Bft) 100,00 %
03.10.2021 17:22 13,7 C 12,8 C 11,7 C 94 % 1003,6 hPa 0,0 l/m 0 min 2 min 42 W/m 22,5 km/h (4 Bft) 100,00 %
03.10.2021 17:24 13,6 C 12,8 C 11,7 C 94 % 1003,7 hPa 0,0 l/m 0 min 0 min 45 W/m 22,5 km/h (4 Bft) 100,00 %
03.10.2021 17:26 13,5 C 12,8 C 11,7 C 94 % 1003,7 hPa 0,0 l/m 0 min 0 min 43 W/m 22,5 km/h (4 Bft) 100,00 %
03.10.2021 17:28 13,4 C 12,2 C 11,1 C 94 % 1003,7 hPa 0,0 l/m 0 min 0 min 31 W/m 22,5 km/h (4 Bft) 95,74 %
03.10.2021 17:30 13,4 C 12,2 C 11,7 C 94 % 1004,0 hPa 0,0 l/m 0 min 0 min 13 W/m 16,1 km/h (3 Bft) 100,00 %
03.10.2021 17:32 13,3 C 12,2 C 11,7 C 94 % 1004,1 hPa 0,0 l/m 0 min 0 min 7 W/m 19,3 km/h (3 Bft) 97,87 %
03.10.2021 17:34 13,2 C 12,2 C 11,1 C 94 % 1004,3 hPa 0,0 l/m 0 min 0 min 7 W/m 22,5 km/h (4 Bft) 100,00 %
03.10.2021 17:36 13,0 C 11,7 C 11,1 C 94 % 1004,2 hPa 0,0 l/m 0 min 0 min 16 W/m 32,2 km/h (5 Bft) 95,74 %
03.10.2021 17:38 12,6 C 11,7 C 10,6 C 93 % 1004,4 hPa 0,0 l/m 0 min 0 min 40 W/m 29,0 km/h (5 Bft) 100,00 %
03.10.2021 17:40 12,4 C 11,1 C 10,6 C 93 % 1004,5 hPa 0,0 l/m 0 min 0 min 38 W/m 22,5 km/h (4 Bft) 100,00 %
03.10.2021 17:42 12,1 C 11,1 C 10,6 C 93 % 1004,7 hPa 0,0 l/m 0 min 0 min 26 W/m 25,7 km/h (4 Bft) 100,00 %
03.10.2021 17:44 12,0 C 11,1 C 10,0 C 93 % 1004,8 hPa 0,0 l/m 0 min 0 min 25 W/m 19,3 km/h (3 Bft) 100,00 %
03.10.2021 17:46 11,8 C 11,1 C 10,0 C 93 % 1004,9 hPa 0,0 l/m 0 min 0 min 23 W/m 22,5 km/h (4 Bft) 51,22 %
03.10.2021 17:48 11,7 C 10,6 C 10,0 C 93 % 1004,8 hPa 0,0 l/m 0 min 0 min 18 W/m 16,1 km/h (3 Bft) 100,00 %
03.10.2021 17:50 11,6 C 10,6 C 10,0 C 93 % 1004,8 hPa 0,0 l/m 0 min 0 min 19 W/m 12,9 km/h (3 Bft) 100,00 %
03.10.2021 17:52 11,6 C 10,6 C 10,0 C 92 % 1004,8 hPa 0,0 l/m 0 min 0 min 18 W/m 9,7 km/h (2 Bft) 100,00 %
03.10.2021 17:54 11,5 C 10,6 C 10,0 C 92 % 1004,9 hPa 0,0 l/m 0 min 0 min 18 W/m 19,3 km/h (3 Bft) 100,00 %
03.10.2021 17:56 11,5 C 10,6 C 10,0 C 92 % 1004,7 hPa 0,0 l/m 0 min 0 min 21 W/m 12,9 km/h (3 Bft) 100,00 %
03.10.2021 17:58 11,5 C 10,6 C 10,0 C 92 % 1004,6 hPa 0,0 l/m 0 min 0 min 25 W/m 12,9 km/h (3 Bft) 97,87 %
03.10.2021 18:00 11,5 C 10,6 C 10,0 C 92 % 1004,6 hPa 0,0 l/m 0 min 0 min 27 W/m 9,7 km/h (2 Bft) 97,87 %
03.10.2021 18:02 11,5 C 10,6 C 10,0 C 92 % 1004,5 hPa 0,0 l/m 0 min 0 min 29 W/m 6,4 km/h (2 Bft) 100,00 %
03.10.2021 18:04 11,5 C 10,6 C 10,0 C 92 % 1004,9 hPa 0,0 l/m 0 min 0 min 28 W/m 12,9 km/h (3 Bft) 100,00 %
03.10.2021 18:08 11,5 C 10,6 C 10,0 C 92 % 1005,1 hPa 0,0 l/m 0 min 0 min 25 W/m 6,4 km/h (2 Bft) 98,96 %
03.10.2021 18:10 11,5 C 10,6 C 10,0 C 92 % 1005,2 hPa 0,0 l/m 0 min 0 min 20 W/m 6,4 km/h (2 Bft) 100,00 %
03.10.2021 18:12 11,5 C 11,1 C 10,0 C 92 % 1005,3 hPa 0,0 l/m 0 min 0 min 21 W/m 6,4 km/h (2 Bft) 97,87 %
03.10.2021 18:14 11,6 C 11,1 C 10,0 C 92 % 1005,5 hPa 0,0 l/m 0 min 0 min 17 W/m 12,9 km/h (3 Bft) 94,59 %
03.10.2021 18:16 11,6 C 11,1 C 10,0 C 92 % 1005,6 hPa 0,0 l/m 0 min 0 min 13 W/m 3,2 km/h (1 Bft) 97,83 %
03.10.2021 18:18 11,6 C 11,1 C 10,0 C 92 % 1005,6 hPa 0,0 l/m 0 min 0 min 13 W/m 6,4 km/h (2 Bft) 97,87 %
03.10.2021 18:20 11,6 C 11,1 C 10,6 C 92 % 1005,6 hPa 0,0 l/m 0 min 0 min 19 W/m 6,4 km/h (2 Bft) 97,87 %
03.10.2021 18:22 11,6 C 11,1 C 10,0 C 92 % 1005,8 hPa 0,0 l/m 0 min 0 min 21 W/m 6,4 km/h (2 Bft) 97,87 %
03.10.2021 18:24 11,6 C 11,1 C 10,6 C 92 % 1006,0 hPa 0,0 l/m 0 min 0 min 18 W/m 3,2 km/h (1 Bft) 97,87 %
03.10.2021 18:26 11,6 C 11,1 C 10,6 C 92 % 1006,0 hPa 0,0 l/m 0 min 0 min 20 W/m 3,2 km/h (1 Bft) 95,74 %
03.10.2021 18:28 11,7 C 11,1 C 10,6 C 93 % 1006,0 hPa 0,0 l/m 0 min 0 min 19 W/m 3,2 km/h (1 Bft) 97,83 %
03.10.2021 18:30 11,7 C 11,1 C 10,6 C 93 % 1006,0 hPa 0,0 l/m 0 min 0 min 17 W/m 9,7 km/h (2 Bft) 97,87 %
03.10.2021 18:32 11,7 C 11,1 C 10,6 C 93 % 1006,2 hPa 0,0 l/m 0 min 0 min 13 W/m 12,9 km/h (3 Bft) 97,87 %
03.10.2021 18:34 11,7 C 11,1 C 10,0 C 93 % 1006,2 hPa 0,0 l/m 0 min 0 min 11 W/m 6,4 km/h (2 Bft) 97,87 %
03.10.2021 18:36 11,7 C 11,1 C 10,6 C 93 % 1006,3 hPa 0,0 l/m 0 min 0 min 10 W/m 12,9 km/h (3 Bft) 97,87 %
03.10.2021 18:38 11,7 C 11,1 C 10,6 C 93 % 1006,4 hPa 0,0 l/m 0 min 0 min 9 W/m 6,4 km/h (2 Bft) 97,87 %
03.10.2021 18:40 11,7 C 11,1 C 10,0 C 93 % 1006,5 hPa 0,0 l/m 0 min 0 min 7 W/m 6,4 km/h (2 Bft) 97,83 %
03.10.2021 18:42 11,7 C 11,1 C 10,6 C 93 % 1006,6 hPa 0,0 l/m 0 min 0 min 7 W/m 3,2 km/h (1 Bft) 100,00 %
03.10.2021 18:44 11,7 C 11,1 C 10,6 C 93 % 1006,6 hPa 0,0 l/m 0 min 0 min 7 W/m 3,2 km/h (1 Bft) 97,87 %
03.10.2021 18:46 11,7 C 11,1 C 10,6 C 93 % 1006,6 hPa 0,0 l/m 0 min 0 min 9 W/m 6,4 km/h (2 Bft) 100,00 %
03.10.2021 18:48 11,7 C 11,1 C 10,6 C 93 % 1006,8 hPa 0,0 l/m 0 min 0 min 8 W/m 3,2 km/h (1 Bft) 100,00 %
03.10.2021 18:50 11,7 C 11,1 C 10,6 C 93 % 1006,8 hPa 0,0 l/m 0 min 0 min 7 W/m 3,2 km/h (1 Bft) 100,00 %
03.10.2021 18:52 11,8 C 11,1 C 10,6 C 93 % 1006,8 hPa 0,0 l/m 0 min 0 min 7 W/m 3,2 km/h (1 Bft) 100,00 %
03.10.2021 18:54 11,8 C 11,1 C 10,6 C 93 % 1006,9 hPa 0,0 l/m 0 min 0 min 6 W/m 6,4 km/h (2 Bft) 100,00 %
03.10.2021 18:56 11,8 C 11,1 C 10,6 C 93 % 1006,8 hPa 0,0 l/m 0 min 0 min 5 W/m 3,2 km/h (1 Bft) 100,00 %
03.10.2021 18:58 11,7 C 11,1 C 10,6 C 93 % 1006,8 hPa 0,0 l/m 0 min 0 min 5 W/m 3,2 km/h (1 Bft) 98,15 %
03.10.2021 19:00 11,7 C 11,1 C 10,6 C 93 % 1006,9 hPa 0,0 l/m 0 min 0 min 5 W/m 3,2 km/h (1 Bft) 100,00 %
03.10.2021 19:02 11,8 C 11,1 C 10,6 C 93 % 1006,8 hPa 0,0 l/m 0 min 0 min 5 W/m 9,7 km/h (2 Bft) 100,00 %
03.10.2021 19:04 11,8 C 11,1 C 10,6 C 93 % 1007,0 hPa 0,0 l/m 0 min 0 min 5 W/m 3,2 km/h (1 Bft) 100,00 %
03.10.2021 19:06 11,8 C 11,1 C 10,6 C 93 % 1007,1 hPa 0,0 l/m 0 min 0 min 5 W/m 3,2 km/h (1 Bft) 100,00 %
03.10.2021 19:08 11,8 C 11,1 C 10,6 C 93 % 1007,3 hPa 0,0 l/m 0 min 0 min 5 W/m 12,9 km/h (3 Bft) 97,87 %
03.10.2021 19:10 11,8 C 11,1 C 10,0 C 93 % 1007,3 hPa 0,0 l/m 0 min 0 min 0 W/m 9,7 km/h (2 Bft) 97,87 %
03.10.2021 19:12 11,8 C 11,1 C 10,0 C 93 % 1007,3 hPa 0,0 l/m 0 min 0 min 0 W/m 16,1 km/h (3 Bft) 94,59 %
03.10.2021 19:14 11,7 C 11,1 C 10,0 C 93 % 1007,4 hPa 0,0 l/m 0 min 0 min 0 W/m 12,9 km/h (3 Bft) 95,65 %
03.10.2021 19:16 11,7 C 11,1 C 10,0 C 93 % 1007,5 hPa 0,0 l/m 0 min 0 min 0 W/m 6,4 km/h (2 Bft) 95,74 %
03.10.2021 19:18 11,7 C 11,1 C 10,0 C 93 % 1007,7 hPa 0,0 l/m 0 min 0 min 0 W/m 6,4 km/h (2 Bft) 95,74 %
03.10.2021 19:20 11,7 C 11,1 C 10,0 C 93 % 1007,8 hPa 0,0 l/m 0 min 0 min 0 W/m 12,9 km/h (3 Bft) 93,62 %
03.10.2021 19:22 11,7 C 11,1 C 10,0 C 93 % 1007,6 hPa 0,0 l/m 0 min 0 min 0 W/m 12,9 km/h (3 Bft) 93,62 %
03.10.2021 19:24 11,8 C 11,1 C 10,6 C 93 % 1007,9 hPa 0,0 l/m 0 min 0 min 0 W/m 9,7 km/h (2 Bft) 93,62 %
03.10.2021 19:26 11,9 C 11,7 C 10,6 C 93 % 1008,1 hPa 0,0 l/m 0 min 0 min 0 W/m 6,4 km/h (2 Bft) 95,65 %
03.10.2021 19:28 11,9 C 11,7 C 10,6 C 93 % 1008,2 hPa 0,0 l/m 0 min 0 min 0 W/m 6,4 km/h (2 Bft) 95,74 %
03.10.2021 19:30 12,0 C 11,7 C 10,6 C 93 % 1008,2 hPa 0,0 l/m 0 min 0 min 0 W/m 6,4 km/h (2 Bft) 95,74 %
03.10.2021 19:32 12,1 C 11,7 C 10,6 C 93 % 1008,3 hPa 0,0 l/m 0 min 0 min 0 W/m 6,4 km/h (2 Bft) 95,74 %
03.10.2021 19:34 12,1 C 11,7 C 10,6 C 93 % 1008,3 hPa 0,0 l/m 0 min 0 min 0 W/m 6,4 km/h (2 Bft) 95,74 %
03.10.2021 19:36 12,1 C 11,7 C 10,6 C 93 % 1008,3 hPa 0,0 l/m 0 min 0 min 0 W/m 6,4 km/h (2 Bft) 95,74 %
03.10.2021 19:38 12,1 C 11,7 C 10,6 C 93 % 1008,3 hPa 0,0 l/m 0 min 0 min 0 W/m 6,4 km/h (2 Bft) 93,48 %
03.10.2021 19:40 12,1 C 11,7 C 10,6 C 93 % 1008,4 hPa 0,0 l/m 0 min 0 min 0 W/m 6,4 km/h (2 Bft) 93,62 %
03.10.2021 19:42 12,2 C 11,7 C 10,6 C 92 % 1008,4 hPa 0,0 l/m 0 min 0 min 0 W/m 6,4 km/h (2 Bft) 96,30 %
03.10.2021 19:44 12,3 C 11,7 C 10,6 C 92 % 1008,4 hPa 0,0 l/m 0 min 0 min 0 W/m 6,4 km/h (2 Bft) 95,74 %
03.10.2021 19:46 12,3 C 11,7 C 10,6 C 92 % 1008,4 hPa 0,0 l/m 0 min 0 min 0 W/m 9,7 km/h (2 Bft) 93,62 %
03.10.2021 19:48 12,3 C 11,7 C 10,6 C 92 % 1008,4 hPa 0,0 l/m 0 min 0 min 0 W/m 12,9 km/h (3 Bft) 95,65 %
03.10.2021 19:50 12,3 C 11,7 C 10,6 C 92 % 1008,5 hPa 0,0 l/m 0 min 0 min 0 W/m 12,9 km/h (3 Bft) 94,00 %
03.10.2021 19:52 12,3 C 11,7 C 10,6 C 92 % 1008,8 hPa 0,0 l/m 0 min 0 min 0 W/m 16,1 km/h (3 Bft) 91,89 %
03.10.2021 19:54 12,3 C 11,7 C 10,6 C 92 % 1008,7 hPa 0,0 l/m 0 min 0 min 0 W/m 16,1 km/h (3 Bft) 97,87 %
03.10.2021 19:56 12,3 C 11,7 C 10,6 C 92 % 1008,8 hPa 0,0 l/m 0 min 0 min 0 W/m 16,1 km/h (3 Bft) 97,87 %
03.10.2021 19:58 12,3 C 11,7 C 10,6 C 92 % 1008,8 hPa 0,0 l/m 0 min 0 min 0 W/m 12,9 km/h (3 Bft) 95,74 %
03.10.2021 20:00 12,2 C 11,7 C 10,6 C 92 % 1008,7 hPa 0,0 l/m 0 min 0 min 0 W/m 16,1 km/h (3 Bft) 95,65 %
03.10.2021 20:02 12,2 C 11,7 C 10,6 C 92 % 1008,7 hPa 0,0 l/m 0 min 0 min 0 W/m 12,9 km/h (3 Bft) 95,74 %
03.10.2021 20:04 12,1 C 11,7 C 10,6 C 92 % 1008,9 hPa 0,0 l/m 0 min 0 min 0 W/m 16,1 km/h (3 Bft) 96,30 %
03.10.2021 20:06 12,1 C 11,7 C 10,6 C 92 % 1008,9 hPa 0,0 l/m 0 min 0 min 0 W/m 9,7 km/h (2 Bft) 98,00 %
03.10.2021 20:08 12,1 C 11,7 C 10,6 C 92 % 1008,9 hPa 0,0 l/m 0 min 0 min 0 W/m 16,1 km/h (3 Bft) 95,74 %
03.10.2021 20:10 12,1 C 11,7 C 10,6 C 92 % 1009,0 hPa 0,0 l/m 0 min 0 min 0 W/m 16,1 km/h (3 Bft) 100,00 %
03.10.2021 20:12 12,1 C 11,7 C 10,6 C 92 % 1009,0 hPa 0,0 l/m 0 min 0 min 0 W/m 16,1 km/h (3 Bft) 97,87 %
03.10.2021 20:14 12,1 C 11,7 C 10,6 C 92 % 1009,2 hPa 0,0 l/m 0 min 0 min 0 W/m 16,1 km/h (3 Bft) 97,87 %
03.10.2021 20:16 12,1 C 11,7 C 10,6 C 92 % 1009,2 hPa 0,0 l/m 0 min 0 min 0 W/m 19,3 km/h (3 Bft) 97,87 %
03.10.2021 20:18 12,1 C 11,7 C 10,6 C 92 % 1009,3 hPa 0,0 l/m 0 min 0 min 0 W/m 12,9 km/h (3 Bft) 95,74 %
03.10.2021 20:20 12,1 C 11,7 C 10,6 C 92 % 1009,4 hPa 0,0 l/m 0 min 0 min 0 W/m 16,1 km/h (3 Bft) 97,87 %
03.10.2021 20:22 12,1 C 11,7 C 10,6 C 92 % 1009,4 hPa 0,0 l/m 0 min 0 min 0 W/m 9,7 km/h (2 Bft) 97,83 %
03.10.2021 20:24 12,1 C 11,7 C 10,6 C 93 % 1009,5 hPa 0,0 l/m 0 min 0 min 0 W/m 12,9 km/h (3 Bft) 97,87 %
03.10.2021 20:26 12,1 C 11,7 C 10,6 C 93 % 1009,6 hPa 0,0 l/m 0 min 0 min 0 W/m 9,7 km/h (2 Bft) 95,74 %
03.10.2021 20:28 12,1 C 11,7 C 10,6 C 93 % 1009,7 hPa 0,0 l/m 0 min 0 min 0 W/m 19,3 km/h (3 Bft) 97,87 %
03.10.2021 20:30 12,1 C 11,7 C 10,6 C 93 % 1009,7 hPa 0,0 l/m 0 min 0 min 0 W/m 32,2 km/h (5 Bft) 100,00 %
03.10.2021 20:32 12,1 C 11,7 C 10,6 C 93 % 1009,7 hPa 0,0 l/m 0 min 0 min 0 W/m 22,5 km/h (4 Bft) 100,00 %
03.10.2021 20:34 12,1 C 11,7 C 10,6 C 92 % 1009,7 hPa 0,0 l/m 0 min 0 min 0 W/m 19,3 km/h (3 Bft) 100,00 %
03.10.2021 20:36 12,1 C 11,7 C 10,6 C 92 % 1009,7 hPa 0,0 l/m 0 min 0 min 0 W/m 12,9 km/h (3 Bft) 100,00 %
03.10.2021 20:38 12,1 C 11,7 C 10,6 C 93 % 1009,7 hPa 0,0 l/m 0 min 0 min 0 W/m 12,9 km/h (3 Bft) 100,00 %
03.10.2021 20:40 12,1 C 11,7 C 10,6 C 93 % 1009,8 hPa 0,0 l/m 0 min 0 min 0 W/m 16,1 km/h (3 Bft) 97,87 %
03.10.2021 20:42 12,1 C 11,7 C 10,6 C 93 % 1009,9 hPa 0,0 l/m 0 min 0 min 0 W/m 9,7 km/h (2 Bft) 100,00 %
03.10.2021 20:44 12,1 C 11,7 C 10,6 C 93 % 1009,9 hPa 0,0 l/m 0 min 0 min 0 W/m 6,4 km/h (2 Bft) 100,00 %
03.10.2021 20:46 12,1 C 11,7 C 10,6 C 92 % 1009,9 hPa 0,0 l/m 0 min 0 min 0 W/m 16,1 km/h (3 Bft) 97,87 %
03.10.2021 20:48 12,1 C 11,7 C 10,6 C 92 % 1009,9 hPa 0,0 l/m 0 min 0 min 0 W/m 9,7 km/h (2 Bft) 100,00 %
03.10.2021 20:50 12,0 C 11,7 C 10,6 C 93 % 1009,9 hPa 0,0 l/m 0 min 0 min 0 W/m 12,9 km/h (3 Bft) 100,00 %
03.10.2021 20:52 12,0 C 11,7 C 10,6 C 92 % 1010,0 hPa 0,0 l/m 0 min 0 min 0 W/m 22,5 km/h (4 Bft) 100,00 %
03.10.2021 20:54 12,0 C 11,7 C 10,6 C 92 % 1010,2 hPa 0,0 l/m 0 min 0 min 0 W/m 19,3 km/h (3 Bft) 100,00 %
03.10.2021 20:56 12,0 C 11,7 C 10,6 C 92 % 1010,1 hPa 0,0 l/m 0 min 0 min 0 W/m 22,5 km/h (4 Bft) 100,00 %
03.10.2021 20:58 12,0 C 11,7 C 10,6 C 92 % 1010,3 hPa 0,0 l/m 0 min 0 min 0 W/m 16,1 km/h (3 Bft) 100,00 %
03.10.2021 21:00 12,0 C 11,7 C 10,6 C 92 % 1010,3 hPa 0,0 l/m 0 min 0 min 0 W/m 22,5 km/h (4 Bft) 100,00 %
03.10.2021 21:02 12,0 C 11,7 C 10,6 C 92 % 1010,4 hPa 0,0 l/m 0 min 0 min 0 W/m 22,5 km/h (4 Bft) 97,87 %
03.10.2021 21:04 12,0 C 11,7 C 10,6 C 92 % 1010,4 hPa 0,0 l/m 0 min 0 min 0 W/m 19,3 km/h (3 Bft) 100,00 %
03.10.2021 21:06 12,0 C 11,7 C 10,6 C 92 % 1010,5 hPa 0,0 l/m 0 min 0 min 0 W/m 16,1 km/h (3 Bft) 100,00 %
03.10.2021 21:08 12,0 C 11,7 C 10,6 C 92 % 1010,5 hPa 0,0 l/m 0 min 0 min 0 W/m 12,9 km/h (3 Bft) 100,00 %
03.10.2021 21:10 12,0 C 11,7 C 10,6 C 92 % 1010,6 hPa 0,0 l/m 0 min 0 min 0 W/m 19,3 km/h (3 Bft) 100,00 %
03.10.2021 21:12 12,0 C 11,7 C 10,6 C 92 % 1010,6 hPa 0,0 l/m 0 min 0 min 0 W/m 19,3 km/h (3 Bft) 95,74 %
03.10.2021 21:14 12,0 C 11,7 C 10,6 C 92 % 1010,7 hPa 0,0 l/m 0 min 0 min 0 W/m 12,9 km/h (3 Bft) 100,00 %
03.10.2021 21:16 12,0 C 11,7 C 10,6 C 92 % 1010,8 hPa 0,0 l/m 0 min 0 min 0 W/m 19,3 km/h (3 Bft) 100,00 %
03.10.2021 21:18 12,0 C 11,7 C 10,6 C 92 % 1010,8 hPa 0,0 l/m 0 min 0 min 0 W/m 19,3 km/h (3 Bft) 100,00 %
03.10.2021 21:20 12,0 C 11,7 C 10,6 C 91 % 1010,8 hPa 0,0 l/m 0 min 0 min 0 W/m 29,0 km/h (5 Bft) 100,00 %
03.10.2021 21:22 12,0 C 11,7 C 10,6 C 91 % 1010,9 hPa 0,0 l/m 0 min 0 min 0 W/m 19,3 km/h (3 Bft) 97,83 %
03.10.2021 21:24 12,0 C 11,7 C 10,6 C 91 % 1010,9 hPa 0,0 l/m 0 min 0 min 0 W/m 19,3 km/h (3 Bft) 100,00 %
03.10.2021 21:26 12,0 C 11,7 C 10,6 C 91 % 1010,8 hPa 0,0 l/m 0 min 0 min 0 W/m 19,3 km/h (3 Bft) 98,00 %
03.10.2021 21:28 12,0 C 11,7 C 10,6 C 91 % 1010,8 hPa 0,0 l/m 0 min 0 min 0 W/m 16,1 km/h (3 Bft) 100,00 %
03.10.2021 21:30 12,0 C 11,7 C 10,6 C 91 % 1010,9 hPa 0,0 l/m 0 min 0 min 0 W/m 25,7 km/h (4 Bft) 100,00 %
03.10.2021 21:32 12,0 C 11,7 C 10,6 C 91 % 1011,0 hPa 0,0 l/m 0 min 0 min 0 W/m 29,0 km/h (5 Bft) 100,00 %
03.10.2021 21:34 12,0 C 11,7 C 10,6 C 91 % 1011,0 hPa 0,0 l/m 0 min 0 min 0 W/m 19,3 km/h (3 Bft) 97,92 %
03.10.2021 21:36 12,0 C 11,7 C 10,6 C 91 % 1011,0 hPa 0,0 l/m 0 min 0 min 0 W/m 22,5 km/h (4 Bft) 100,00 %
03.10.2021 21:38 12,0 C 11,7 C 10,6 C 91 % 1011,1 hPa 0,0 l/m 0 min 0 min 0 W/m 16,1 km/h (3 Bft) 100,00 %
03.10.2021 21:40 12,0 C 11,7 C 10,0 C 90 % 1011,0 hPa 0,0 l/m 0 min 0 min 0 W/m 12,9 km/h (3 Bft) 100,00 %
03.10.2021 21:42 12,0 C 11,7 C 10,6 C 90 % 1011,1 hPa 0,0 l/m 0 min 0 min 0 W/m 16,1 km/h (3 Bft) 97,87 %
03.10.2021 21:44 12,0 C 11,7 C 10,0 C 90 % 1011,1 hPa 0,0 l/m 0 min 0 min 0 W/m 25,7 km/h (4 Bft) 95,74 %
03.10.2021 21:46 12,0 C 11,7 C 10,0 C 90 % 1011,1 hPa 0,0 l/m 0 min 0 min 0 W/m 19,3 km/h (3 Bft) 97,83 %
03.10.2021 21:48 12,0 C 11,7 C 10,6 C 90 % 1011,1 hPa 0,0 l/m 0 min 0 min 0 W/m 16,1 km/h (3 Bft) 95,74 %
03.10.2021 21:50 12,0 C 11,7 C 10,0 C 90 % 1011,1 hPa 0,0 l/m 0 min 0 min 0 W/m 16,1 km/h (3 Bft) 95,74 %
03.10.2021 21:52 12,0 C 11,7 C 10,0 C 90 % 1011,1 hPa 0,0 l/m 0 min 0 min 0 W/m 16,1 km/h (3 Bft) 95,74 %
03.10.2021 21:54 12,0 C 11,7 C 10,0 C 90 % 1011,1 hPa 0,0 l/m 0 min 0 min 0 W/m 9,7 km/h (2 Bft) 95,74 %
03.10.2021 21:56 12,0 C 11,7 C 10,0 C 90 % 1011,1 hPa 0,0 l/m 0 min 0 min 0 W/m 16,1 km/h (3 Bft) 95,74 %
03.10.2021 21:58 12,0 C 11,7 C 10,0 C 90 % 1011,1 hPa 0,0 l/m 0 min 0 min 0 W/m 19,3 km/h (3 Bft) 94,44 %
03.10.2021 22:00 12,0 C 11,7 C 10,0 C 90 % 1011,1 hPa 0,0 l/m 0 min 0 min 0 W/m 16,1 km/h (3 Bft) 95,74 %
03.10.2021 22:02 12,0 C 11,7 C 10,0 C 90 % 1011,2 hPa 0,0 l/m 0 min 0 min 0 W/m 22,5 km/h (4 Bft) 91,49 %
03.10.2021 22:04 12,0 C 11,7 C 10,0 C 90 % 1011,2 hPa 0,0 l/m 0 min 0 min 0 W/m 6,4 km/h (2 Bft) 93,62 %
03.10.2021 22:06 12,0 C 11,7 C 10,0 C 90 % 1011,2 hPa 0,0 l/m 0 min 0 min 0 W/m 16,1 km/h (3 Bft) 95,92 %
03.10.2021 22:08 12,0 C 11,1 C 10,0 C 90 % 1011,2 hPa 0,0 l/m 0 min 0 min 0 W/m 12,9 km/h (3 Bft) 95,74 %
03.10.2021 22:10 12,0 C 11,1 C 10,0 C 90 % 1011,2 hPa 0,0 l/m 0 min 0 min 0 W/m 16,1 km/h (3 Bft) 95,74 %
03.10.2021 22:12 12,0 C 11,7 C 10,0 C 89 % 1011,3 hPa 0,0 l/m 0 min 0 min 0 W/m 19,3 km/h (3 Bft) 93,62 %
03.10.2021 22:14 12,0 C 11,1 C 10,0 C 89 % 1011,3 hPa 0,0 l/m 0 min 0 min 0 W/m 6,4 km/h (2 Bft) 95,74 %
03.10.2021 22:16 12,0 C 11,1 C 10,0 C 89 % 1011,3 hPa 0,0 l/m 0 min 0 min 0 W/m 22,5 km/h (4 Bft) 93,62 %
03.10.2021 22:18 12,0 C 11,1 C 10,0 C 89 % 1011,4 hPa 0,0 l/m 0 min 0 min 0 W/m 9,7 km/h (2 Bft) 97,87 %
03.10.2021 22:20 11,9 C 11,1 C 10,0 C 89 % 1011,5 hPa 0,0 l/m 0 min 0 min 0 W/m 32,2 km/h (5 Bft) 97,87 %
03.10.2021 22:22 11,9 C 11,1 C 10,0 C 89 % 1011,6 hPa 0,0 l/m 0 min 0 min 0 W/m 25,7 km/h (4 Bft) 97,87 %
03.10.2021 22:24 11,9 C 11,1 C 10,0 C 89 % 1011,7 hPa 0,0 l/m 0 min 0 min 0 W/m 25,7 km/h (4 Bft) 100,00 %
03.10.2021 22:26 11,9 C 11,7 C 10,0 C 89 % 1011,8 hPa 0,0 l/m 0 min 0 min 0 W/m 19,3 km/h (3 Bft) 94,29 %
03.10.2021 22:28 11,9 C 11,7 C 10,0 C 89 % 1011,8 hPa 0,0 l/m 0 min 0 min 0 W/m 16,1 km/h (3 Bft) 93,62 %
03.10.2021 22:30 11,9 C 11,1 C 10,0 C 89 % 1011,8 hPa 0,0 l/m 0 min 0 min 0 W/m 19,3 km/h (3 Bft) 97,87 %
03.10.2021 22:32 11,9 C 11,1 C 10,0 C 89 % 1011,9 hPa 0,0 l/m 0 min 0 min 0 W/m 12,9 km/h (3 Bft) 97,87 %
03.10.2021 22:34 11,9 C 11,7 C 10,0 C 89 % 1011,9 hPa 0,0 l/m 0 min 0 min 0 W/m 19,3 km/h (3 Bft) 97,83 %
03.10.2021 22:36 11,9 C 11,1 C 10,0 C 89 % 1012,0 hPa 0,0 l/m 0 min 0 min 0 W/m 19,3 km/h (3 Bft) 95,74 %
03.10.2021 22:38 11,9 C 11,1 C 10,0 C 89 % 1012,0 hPa 0,0 l/m 0 min 0 min 0 W/m 16,1 km/h (3 Bft) 100,00 %
03.10.2021 22:40 11,9 C 11,1 C 10,0 C 89 % 1012,0 hPa 0,0 l/m 0 min 0 min 0 W/m 35,4 km/h (5 Bft) 97,87 %
03.10.2021 22:42 11,9 C 11,1 C 10,0 C 89 % 1012,1 hPa 0,0 l/m 0 min 0 min 0 W/m 19,3 km/h (3 Bft) 97,87 %
03.10.2021 22:44 11,9 C 11,1 C 10,0 C 89 % 1012,1 hPa 0,0 l/m 0 min 0 min 0 W/m 29,0 km/h (5 Bft) 98,15 %
03.10.2021 22:46 11,9 C 11,1 C 10,0 C 88 % 1012,2 hPa 0,0 l/m 0 min 0 min 0 W/m 12,9 km/h (3 Bft) 98,00 %
03.10.2021 22:48 11,9 C 11,1 C 10,0 C 88 % 1012,2 hPa 0,0 l/m 0 min 0 min 0 W/m 29,0 km/h (5 Bft) 95,74 %
03.10.2021 22:50 11,9 C 11,1 C 10,0 C 88 % 1012,2 hPa 0,0 l/m 0 min 0 min 0 W/m 25,7 km/h (4 Bft) 97,87 %
03.10.2021 22:52 11,9 C 11,1 C 10,0 C 88 % 1012,2 hPa 0,0 l/m 0 min 0 min 0 W/m 16,1 km/h (3 Bft) 97,87 %
03.10.2021 22:54 11,9 C 11,1 C 10,0 C 88 % 1012,3 hPa 0,0 l/m 0 min 0 min 0 W/m 16,1 km/h (3 Bft) 97,87 %
03.10.2021 22:56 11,9 C 11,1 C 10,0 C 88 % 1012,4 hPa 0,0 l/m 0 min 0 min 0 W/m 22,5 km/h (4 Bft) 95,74 %
03.10.2021 22:58 11,9 C 11,1 C 10,0 C 88 % 1012,5 hPa 0,0 l/m 0 min 0 min 0 W/m 32,2 km/h (5 Bft) 95,74 %
03.10.2021 23:00 11,9 C 11,1 C 10,0 C 88 % 1012,5 hPa 0,0 l/m 0 min 0 min 0 W/m 16,1 km/h (3 Bft) 95,74 %
03.10.2021 23:02 11,9 C 11,1 C 10,0 C 88 % 1012,5 hPa 0,0 l/m 0 min 0 min 0 W/m 12,9 km/h (3 Bft) 97,87 %
03.10.2021 23:04 11,9 C 11,1 C 10,0 C 88 % 1012,4 hPa 0,0 l/m 0 min 0 min 0 W/m 19,3 km/h (3 Bft) 97,83 %
03.10.2021 23:06 11,9 C 11,1 C 10,0 C 88 % 1012,5 hPa 0,0 l/m 0 min 0 min 0 W/m 19,3 km/h (3 Bft) 93,62 %
03.10.2021 23:08 11,9 C 11,1 C 10,0 C 88 % 1012,5 hPa 0,0 l/m 0 min 0 min 0 W/m 22,5 km/h (4 Bft) 97,87 %
03.10.2021 23:10 11,9 C 11,1 C 10,0 C 88 % 1012,5 hPa 0,0 l/m 0 min 0 min 0 W/m 12,9 km/h (3 Bft) 97,87 %
03.10.2021 23:12 11,9 C 11,1 C 10,0 C 88 % 1012,5 hPa 0,0 l/m 0 min 0 min 0 W/m 19,3 km/h (3 Bft) 97,14 %
03.10.2021 23:14 11,9 C 11,1 C 10,0 C 88 % 1012,5 hPa 0,0 l/m 0 min 0 min 0 W/m 16,1 km/h (3 Bft) 97,87 %
03.10.2021 23:16 11,9 C 11,1 C 10,0 C 88 % 1012,4 hPa 0,0 l/m 0 min 0 min 0 W/m 9,7 km/h (2 Bft) 98,18 %
03.10.2021 23:18 11,9 C 11,1 C 10,0 C 88 % 1012,3 hPa 0,0 l/m 0 min 0 min 0 W/m 12,9 km/h (3 Bft) 97,96 %
03.10.2021 23:20 11,9 C 11,1 C 10,0 C 88 % 1012,4 hPa 0,0 l/m 0 min 0 min 0 W/m 19,3 km/h (3 Bft) 100,00 %
03.10.2021 23:22 11,9 C 11,1 C 10,0 C 88 % 1012,4 hPa 0,0 l/m 0 min 0 min 0 W/m 16,1 km/h (3 Bft) 100,00 %
03.10.2021 23:24 11,9 C 11,1 C 10,0 C 88 % 1012,3 hPa 0,0 l/m 0 min 0 min 0 W/m 16,1 km/h (3 Bft) 100,00 %
03.10.2021 23:26 11,9 C 11,1 C 10,0 C 88 % 1012,3 hPa 0,0 l/m 0 min 0 min 0 W/m 19,3 km/h (3 Bft) 97,87 %
03.10.2021 23:28 11,9 C 11,1 C 10,0 C 88 % 1012,2 hPa 0,0 l/m 0 min 0 min 0 W/m 16,1 km/h (3 Bft) 100,00 %
03.10.2021 23:30 11,9 C 11,1 C 10,0 C 88 % 1012,1 hPa 0,0 l/m 0 min 0 min 0 W/m 19,3 km/h (3 Bft) 100,00 %
03.10.2021 23:32 11,9 C 11,1 C 10,0 C 88 % 1012,1 hPa 0,0 l/m 0 min 0 min 0 W/m 12,9 km/h (3 Bft) 100,00 %
03.10.2021 23:34 11,9 C 11,1 C 10,0 C 88 % 1012,1 hPa 0,0 l/m 0 min 0 min 0 W/m 9,7 km/h (2 Bft) 100,00 %
03.10.2021 23:36 11,9 C 11,1 C 10,0 C 88 % 1012,2 hPa 0,0 l/m 0 min 0 min 0 W/m 12,9 km/h (3 Bft) 95,74 %
03.10.2021 23:38 11,9 C 11,1 C 10,0 C 88 % 1012,2 hPa 0,0 l/m 0 min 0 min 0 W/m 16,1 km/h (3 Bft) 97,87 %
03.10.2021 23:40 11,9 C 11,1 C 10,0 C 88 % 1012,1 hPa 0,0 l/m 0 min 0 min 0 W/m 19,3 km/h (3 Bft) 97,83 %
03.10.2021 23:42 11,9 C 11,1 C 10,0 C 88 % 1012,1 hPa 0,0 l/m 0 min 0 min 0 W/m 22,5 km/h (4 Bft) 97,87 %
03.10.2021 23:44 11,9 C 11,1 C 10,0 C 88 % 1012,1 hPa 0,0 l/m 0 min 0 min 0 W/m 9,7 km/h (2 Bft) 95,74 %
03.10.2021 23:46 11,9 C 11,1 C 10,0 C 88 % 1012,1 hPa 0,0 l/m 0 min 0 min 0 W/m 12,9 km/h (3 Bft) 98,00 %
03.10.2021 23:48 11,9 C 11,1 C 10,0 C 88 % 1012,2 hPa 0,0 l/m 0 min 0 min 0 W/m 12,9 km/h (3 Bft) 97,87 %
03.10.2021 23:50 11,9 C 11,1 C 10,6 C 88 % 1012,2 hPa 0,0 l/m 0 min 0 min 0 W/m 16,1 km/h (3 Bft) 95,65 %
03.10.2021 23:52 11,9 C 11,1 C 10,6 C 88 % 1012,2 hPa 0,0 l/m 0 min 0 min 0 W/m 6,4 km/h (2 Bft) 97,87 %
03.10.2021 23:54 11,9 C 11,1 C 10,6 C 88 % 1012,2 hPa 0,0 l/m 0 min 0 min 0 W/m 9,7 km/h (2 Bft) 97,87 %
03.10.2021 23:56 11,9 C 11,1 C 10,6 C 88 % 1012,2 hPa 0,0 l/m 0 min 0 min 0 W/m 9,7 km/h (2 Bft) 94,29 %
03.10.2021 23:58 11,9 C 11,1 C 10,6 C 88 % 1012,4 hPa 0,0 l/m 0 min 0 min 0 W/m 12,9 km/h (3 Bft) 97,87 %
_ Min-Zeit 17:54 17:48 17:44 07:08 07:30 - - - - 18:16 17:46
Minimum _ 11,5 C 10,6 C 10,0 C 79 % 996,5 hPa - - - - 3,2 km/h (1 Bft) 51,22 %
_ Max-Zeit 14:52 14:38 14:40 17:22 22:58 16:52 00:00 06:08 14:50 00:18 00:00
Maximum _ 20,0 C 19,4 C 17,3 C 94 % 1012,5 hPa 1,4 l/m 0 min 4 min 158 W/m 54,7 km/h
SW (7 Bft)
100,00 %
Durchschnitt _ 16,3 C 15,4 C 13,5 C 87 % 1001,0 hPa #7,6 l/m #0 min. #10:08 h 54 W/m 21,2 km/h (4 Bft) 97,59 %
© 2021 W. Hausmann